Time,TemperatureF,DewpointF,PressureIn,WindDirection,WindDirectionDegrees,WindSpeedMPH,WindSpeedGustMPH,Humidity,HourlyPrecipIn,Conditions,Clouds,dailyrainin,SolarRadiationWatts/m^2,SoftwareType,DateUTC
2013-09-28 00:01:00,69.5,51.1,29.78,SE,146,9.0,15.0,52,0.00,,,0.00,0,Wunderground v.1.15,2013-09-28 05:01:00,
2013-09-28 00:02:00,69.5,51.1,29.78,SE,142,8.0,15.0,52,0.00,,,0.00,0,Wunderground v.1.15,2013-09-28 05:02:00,
2013-09-28 00:04:00,69.6,51.2,29.78,SE,134,5.0,15.0,52,0.00,,,0.00,0,Wunderground v.1.15,2013-09-28 05:04:00,
2013-09-28 00:06:00,69.6,50.7,29.77,SSE,155,7.0,15.0,51,0.00,,,0.00,0,Wunderground v.1.15,2013-09-28 05:06:00,
2013-09-28 00:07:00,69.5,50.6,29.77,SE,141,6.0,15.0,51,0.00,,,0.00,0,Wunderground v.1.15,2013-09-28 05:07:00,
2013-09-28 00:09:00,69.5,51.1,29.78,SE,140,7.0,15.0,52,0.00,,,0.00,0,Wunderground v.1.15,2013-09-28 05:09:00,
2013-09-28 00:10:00,69.5,51.1,29.77,ESE,119,5.0,13.0,52,0.00,,,0.00,0,Wunderground v.1.15,2013-09-28 05:10:00,
2013-09-28 00:13:00,69.5,51.1,29.78,SE,130,2.0,13.0,52,0.00,,,0.00,0,Wunderground v.1.15,2013-09-28 05:13:00,
2013-09-28 00:14:00,69.5,51.1,29.78,SE,136,3.0,13.0,52,0.00,,,0.00,0,Wunderground v.1.15,2013-09-28 05:14:00,
2013-09-28 00:17:00,69.4,51.0,29.78,ESE,122,5.0,13.0,52,0.00,,,0.00,0,Wunderground v.1.15,2013-09-28 05:17:00,
2013-09-28 00:19:00,69.4,51.0,29.77,SE,129,5.0,13.0,52,0.00,,,0.00,0,Wunderground v.1.15,2013-09-28 05:19:00,
2013-09-28 00:20:00,69.4,51.0,29.77,SE,143,5.0,13.0,52,0.00,,,0.00,0,Wunderground v.1.15,2013-09-28 05:20:00,
2013-09-28 00:25:00,69.3,50.9,29.77,SE,125,6.0,13.0,52,0.00,,,0.00,0,Wunderground v.1.15,2013-09-28 05:25:00,
2013-09-28 00:26:00,69.2,50.8,29.77,ESE,116,3.0,13.0,52,0.00,,,0.00,0,Wunderground v.1.15,2013-09-28 05:26:00,
2013-09-28 00:29:00,69.2,50.8,29.77,SSE,155,4.0,13.0,52,0.00,,,0.00,0,Wunderground v.1.15,2013-09-28 05:29:00,
2013-09-28 00:31:00,69.2,50.8,29.77,SSE,150,8.0,13.0,52,0.00,,,0.00,0,Wunderground v.1.15,2013-09-28 05:31:00,
2013-09-28 00:32:00,69.2,50.8,29.77,SSE,154,11.0,13.0,52,0.00,,,0.00,0,Wunderground v.1.15,2013-09-28 05:32:00,
2013-09-28 00:33:00,69.2,50.8,29.77,ESE,117,9.0,13.0,52,0.00,,,0.00,0,Wunderground v.1.15,2013-09-28 05:33:00,
2013-09-28 00:34:00,69.2,50.8,29.77,SE,143,5.0,13.0,52,0.00,,,0.00,0,Wunderground v.1.15,2013-09-28 05:34:00,
2013-09-28 00:39:00,69.1,50.7,29.77,SE,136,6.0,13.0,52,0.00,,,0.00,0,Wunderground v.1.15,2013-09-28 05:39:00,
2013-09-28 00:40:00,69.1,50.7,29.76,SE,132,5.0,13.0,52,0.00,,,0.00,0,Wunderground v.1.15,2013-09-28 05:40:00,
2013-09-28 00:41:00,69.1,50.7,29.76,SE,134,3.0,13.0,52,0.00,,,0.00,0,Wunderground v.1.15,2013-09-28 05:41:00,
2013-09-28 00:44:00,69.0,50.6,29.76,SE,134,6.0,13.0,52,0.00,,,0.00,0,Wunderground v.1.15,2013-09-28 05:44:00,
2013-09-28 00:46:00,69.0,50.6,29.77,SE,141,3.0,13.0,52,0.00,,,0.00,0,Wunderground v.1.15,2013-09-28 05:46:00,
2013-09-28 00:47:00,69.0,50.6,29.76,South,175,5.0,13.0,52,0.00,,,0.00,0,Wunderground v.1.15,2013-09-28 05:47:00,
2013-09-28 00:49:00,69.0,50.6,29.76,South,169,9.0,13.0,52,0.00,,,0.00,0,Wunderground v.1.15,2013-09-28 05:49:00,
2013-09-28 00:50:00,69.0,50.6,29.76,SE,136,4.0,13.0,52,0.00,,,0.00,0,Wunderground v.1.15,2013-09-28 05:50:00,
2013-09-28 00:52:00,68.9,50.5,29.76,SSE,147,5.0,13.0,52,0.00,,,0.00,0,Wunderground v.1.15,2013-09-28 05:52:00,
2013-09-28 00:56:00,68.8,50.5,29.76,SE,133,3.0,13.0,52,0.00,,,0.00,0,Wunderground v.1.15,2013-09-28 05:56:00,
2013-09-28 00:57:00,68.8,51.0,29.76,SE,126,5.0,13.0,53,0.00,,,0.00,0,Wunderground v.1.15,2013-09-28 05:57:00,
2013-09-28 00:58:00,68.8,50.5,29.76,SSE,147,5.0,13.0,52,0.00,,,0.00,0,Wunderground v.1.15,2013-09-28 05:58:00,
2013-09-28 01:01:00,68.6,50.8,29.76,SE,139,5.0,13.0,53,0.00,,,0.00,0,Wunderground v.1.15,2013-09-28 06:01:00,
2013-09-28 01:04:00,68.6,50.8,29.76,SSE,151,4.0,13.0,53,0.00,,,0.00,0,Wunderground v.1.15,2013-09-28 06:04:00,
2013-09-28 01:05:00,68.5,50.7,29.76,SE,144,11.0,13.0,53,0.00,,,0.00,0,Wunderground v.1.15,2013-09-28 06:05:00,
2013-09-28 01:06:00,68.5,50.7,29.76,SE,138,6.0,13.0,53,0.00,,,0.00,0,Wunderground v.1.15,2013-09-28 06:06:00,
2013-09-28 01:09:00,68.5,50.7,29.76,SE,144,4.0,13.0,53,0.00,,,0.00,0,Wunderground v.1.15,2013-09-28 06:09:00,
2013-09-28 01:11:00,68.5,50.2,29.76,SE,131,10.0,13.0,52,0.00,,,0.00,0,Wunderground v.1.15,2013-09-28 06:11:00,
2013-09-28 01:12:00,68.5,50.2,29.76,SE,133,7.0,13.0,52,0.00,,,0.00,0,Wunderground v.1.15,2013-09-28 06:12:00,
2013-09-28 01:14:00,68.5,50.2,29.76,SE,125,10.0,13.0,52,0.00,,,0.00,0,Wunderground v.1.15,2013-09-28 06:14:00,
2013-09-28 01:17:00,68.4,50.1,29.76,South,173,9.0,13.0,52,0.00,,,0.00,0,Wunderground v.1.15,2013-09-28 06:17:00,
2013-09-28 01:18:00,68.4,50.1,29.76,SE,137,7.0,13.0,52,0.00,,,0.00,0,Wunderground v.1.15,2013-09-28 06:18:00,
2013-09-28 01:19:00,68.4,50.6,29.76,SE,136,6.0,13.0,53,0.00,,,0.00,0,Wunderground v.1.15,2013-09-28 06:19:00,
2013-09-28 01:20:00,68.4,50.1,29.76,SE,136,2.0,13.0,52,0.00,,,0.00,0,Wunderground v.1.15,2013-09-28 06:20:00,
2013-09-28 01:24:00,68.4,50.1,29.76,SE,144,6.0,13.0,52,0.00,,,0.00,0,Wunderground v.1.15,2013-09-28 06:24:00,
2013-09-28 01:27:00,68.3,50.5,29.75,SE,131,7.0,13.0,53,0.00,,,0.00,0,Wunderground v.1.15,2013-09-28 06:27:00,
2013-09-28 01:28:00,68.3,50.0,29.75,SE,136,3.0,13.0,52,0.00,,,0.00,0,Wunderground v.1.15,2013-09-28 06:28:00,
2013-09-28 01:29:00,68.3,50.0,29.76,SE,140,11.0,13.0,52,0.00,,,0.00,0,Wunderground v.1.15,2013-09-28 06:29:00,
2013-09-28 01:33:00,68.2,50.4,29.75,SE,134,3.0,13.0,53,0.00,,,0.00,0,Wunderground v.1.15,2013-09-28 06:33:00,
2013-09-28 01:34:00,68.2,49.9,29.75,East,99,2.0,13.0,52,0.00,,,0.00,0,Wunderground v.1.15,2013-09-28 06:34:00,
2013-09-28 01:35:00,68.2,50.4,29.75,SE,140,6.0,13.0,53,0.00,,,0.00,0,Wunderground v.1.15,2013-09-28 06:35:00,
2013-09-28 01:36:00,68.2,49.9,29.75,SE,145,8.0,13.0,52,0.00,,,0.00,0,Wunderground v.1.15,2013-09-28 06:36:00,
2013-09-28 01:38:00,68.1,50.3,29.75,SE,131,2.0,13.0,53,0.00,,,0.00,0,Wunderground v.1.15,2013-09-28 06:38:00,
2013-09-28 01:41:00,68.1,50.3,29.75,SSE,149,7.0,13.0,53,0.00,,,0.00,0,Wunderground v.1.15,2013-09-28 06:41:00,
2013-09-28 01:43:00,68.1,50.3,29.75,SSE,156,3.0,13.0,53,0.00,,,0.00,0,Wunderground v.1.15,2013-09-28 06:43:00,
2013-09-28 01:44:00,68.0,49.7,29.75,SSE,150,6.0,13.0,52,0.00,,,0.00,0,Wunderground v.1.15,2013-09-28 06:44:00,
2013-09-28 01:47:00,68.0,50.2,29.75,SE,125,2.0,13.0,53,0.00,,,0.00,0,Wunderground v.1.15,2013-09-28 06:47:00,
2013-09-28 01:48:00,68.0,50.2,29.75,SE,131,8.0,13.0,53,0.00,,,0.00,0,Wunderground v.1.15,2013-09-28 06:48:00,
2013-09-28 01:50:00,67.9,50.1,29.75,SE,132,8.0,13.0,53,0.00,,,0.00,0,Wunderground v.1.15,2013-09-28 06:50:00,
2013-09-28 01:51:00,67.9,50.1,29.74,SSE,155,7.0,13.0,53,0.00,,,0.00,0,Wunderground v.1.15,2013-09-28 06:51:00,
2013-09-28 01:53:00,67.9,50.1,29.74,SE,142,9.0,13.0,53,0.00,,,0.00,0,Wunderground v.1.15,2013-09-28 06:53:00,
2013-09-28 01:56:00,67.8,50.0,29.75,ESE,116,4.0,13.0,53,0.00,,,0.00,0,Wunderground v.1.15,2013-09-28 06:56:00,
2013-09-28 01:57:00,67.8,50.0,29.75,SE,126,3.0,13.0,53,0.00,,,0.00,0,Wunderground v.1.15,2013-09-28 06:57:00,
2013-09-28 01:58:00,67.8,50.0,29.74,SE,139,9.0,13.0,53,0.00,,,0.00,0,Wunderground v.1.15,2013-09-28 06:58:00,
2013-09-28 02:03:00,67.7,49.9,29.74,SE,144,13.0,13.0,53,0.00,,,0.00,0,Wunderground v.1.15,2013-09-28 07:03:00,
2013-09-28 02:04:00,67.7,49.9,29.75,SE,129,14.0,14.0,53,0.00,,,0.00,0,Wunderground v.1.15,2013-09-28 07:04:00,
2013-09-28 02:05:00,67.8,50.0,29.75,SE,140,8.0,14.0,53,0.00,,,0.00,0,Wunderground v.1.15,2013-09-28 07:05:00,
2013-09-28 02:10:00,67.7,49.9,29.75,SE,142,7.0,13.0,53,0.00,,,0.00,0,Wunderground v.1.15,2013-09-28 07:10:00,
2013-09-28 02:11:00,67.7,49.9,29.74,SE,144,4.0,13.0,53,0.00,,,0.00,0,Wunderground v.1.15,2013-09-28 07:11:00,
2013-09-28 02:12:00,67.6,49.9,29.74,SE,146,3.0,13.0,53,0.00,,,0.00,0,Wunderground v.1.15,2013-09-28 07:12:00,
2013-09-28 02:14:00,67.6,50.4,29.75,SE,131,10.0,13.0,54,0.00,,,0.00,0,Wunderground v.1.15,2013-09-28 07:14:00,
2013-09-28 02:17:00,67.5,50.3,29.75,SSE,147,4.0,13.0,54,0.00,,,0.00,0,Wunderground v.1.15,2013-09-28 07:17:00,
2013-09-28 02:19:00,67.5,50.3,29.75,SE,137,8.0,13.0,54,0.00,,,0.00,0,Wunderground v.1.15,2013-09-28 07:19:00,
2013-09-28 02:24:00,67.4,50.2,29.75,SE,132,9.0,13.0,54,0.00,,,0.00,0,Wunderground v.1.15,2013-09-28 07:24:00,
2013-09-28 02:25:00,67.4,50.2,29.75,SE,140,4.0,13.0,54,0.00,,,0.00,0,Wunderground v.1.15,2013-09-28 07:25:00,
2013-09-28 02:26:00,67.3,50.1,29.75,SE,132,7.0,13.0,54,0.00,,,0.00,0,Wunderground v.1.15,2013-09-28 07:26:00,
2013-09-28 02:30:00,67.2,50.0,29.74,SE,132,4.0,13.0,54,0.00,,,0.00,0,Wunderground v.1.15,2013-09-28 07:30:00,
2013-09-28 02:31:00,67.2,50.0,29.74,SE,142,6.0,13.0,54,0.00,,,0.00,0,Wunderground v.1.15,2013-09-28 07:31:00,
2013-09-28 02:32:00,67.2,50.5,29.74,ESE,117,6.0,13.0,55,0.00,,,0.00,0,Wunderground v.1.15,2013-09-28 07:32:00,
2013-09-28 02:33:00,67.1,49.9,29.74,SE,138,6.0,13.0,54,0.00,,,0.00,0,Wunderground v.1.15,2013-09-28 07:33:00,
2013-09-28 02:37:00,67.0,50.3,29.74,SE,130,5.0,13.0,55,0.00,,,0.00,0,Wunderground v.1.15,2013-09-28 07:37:00,
2013-09-28 02:38:00,67.0,50.3,29.74,SE,136,3.0,13.0,55,0.00,,,0.00,0,Wunderground v.1.15,2013-09-28 07:38:00,
2013-09-28 02:39:00,67.0,50.3,29.74,SE,131,8.0,13.0,55,0.00,,,0.00,0,Wunderground v.1.15,2013-09-28 07:39:00,
2013-09-28 02:40:00,67.0,50.3,29.73,SE,139,8.0,13.0,55,0.00,,,0.00,0,Wunderground v.1.15,2013-09-28 07:40:00,
2013-09-28 02:41:00,67.0,50.3,29.73,South,173,10.0,13.0,55,0.00,,,0.00,0,Wunderground v.1.15,2013-09-28 07:41:00,
2013-09-28 02:44:00,67.0,50.3,29.73,South,174,5.0,13.0,55,0.00,,,0.00,0,Wunderground v.1.15,2013-09-28 07:44:00,
2013-09-28 02:46:00,67.0,50.3,29.73,SSE,154,5.0,13.0,55,0.00,,,0.00,0,Wunderground v.1.15,2013-09-28 07:46:00,
2013-09-28 02:49:00,67.0,50.3,29.73,SE,133,10.0,13.0,55,0.00,,,0.00,0,Wunderground v.1.15,2013-09-28 07:49:00,
2013-09-28 02:51:00,67.0,50.3,29.73,South,171,3.0,13.0,55,0.00,,,0.00,0,Wunderground v.1.15,2013-09-28 07:51:00,
2013-09-28 02:52:00,67.1,50.4,29.73,SE,131,8.0,13.0,55,0.00,,,0.00,0,Wunderground v.1.15,2013-09-28 07:52:00,
2013-09-28 02:55:00,67.1,50.4,29.73,SE,145,12.0,13.0,55,0.00,,,0.00,0,Wunderground v.1.15,2013-09-28 07:55:00,
2013-09-28 02:58:00,67.4,50.7,29.73,ESE,118,7.0,17.0,55,0.00,,,0.00,0,Wunderground v.1.15,2013-09-28 07:58:00,
2013-09-28 02:59:00,67.4,50.7,29.73,ESE,123,5.0,17.0,55,0.00,,,0.00,0,Wunderground v.1.15,2013-09-28 07:59:00,
2013-09-28 03:00:00,67.4,50.7,29.72,SE,135,5.0,13.0,55,0.00,,,0.00,0,Wunderground v.1.15,2013-09-28 08:00:00,
2013-09-28 03:02:00,67.5,50.8,29.73,SE,140,13.0,13.0,55,0.00,,,0.00,0,Wunderground v.1.15,2013-09-28 08:02:00,
2013-09-28 03:06:00,67.4,50.7,29.72,SE,137,8.0,13.0,55,0.00,,,0.00,0,Wunderground v.1.15,2013-09-28 08:06:00,
2013-09-28 03:07:00,67.4,50.7,29.73,SE,146,10.0,13.0,55,0.00,,,0.00,0,Wunderground v.1.15,2013-09-28 08:07:00,
2013-09-28 03:08:00,67.4,50.7,29.72,SE,140,6.0,13.0,55,0.00,,,0.00,0,Wunderground v.1.15,2013-09-28 08:08:00,
2013-09-28 03:09:00,67.4,50.7,29.72,SSE,150,4.0,13.0,55,0.00,,,0.00,0,Wunderground v.1.15,2013-09-28 08:09:00,
2013-09-28 03:13:00,67.5,50.8,29.72,ESE,122,9.0,13.0,55,0.00,,,0.00,0,Wunderground v.1.15,2013-09-28 08:13:00,
2013-09-28 03:14:00,67.6,50.9,29.72,ESE,116,5.0,13.0,55,0.00,,,0.00,0,Wunderground v.1.15,2013-09-28 08:14:00,
2013-09-28 03:16:00,67.6,50.9,29.72,SE,132,7.0,13.0,55,0.00,,,0.00,0,Wunderground v.1.15,2013-09-28 08:16:00,
2013-09-28 03:17:00,67.6,50.9,29.73,SE,141,12.0,13.0,55,0.00,,,0.00,0,Wunderground v.1.15,2013-09-28 08:17:00,
2013-09-28 03:20:00,67.6,50.9,29.73,SE,133,5.0,13.0,55,0.00,,,0.00,0,Wunderground v.1.15,2013-09-28 08:20:00,
2013-09-28 03:21:00,67.6,50.9,29.72,East,95,5.0,13.0,55,0.00,,,0.00,0,Wunderground v.1.15,2013-09-28 08:21:00,
2013-09-28 03:23:00,67.6,50.9,29.72,SE,137,6.0,13.0,55,0.00,,,0.00,0,Wunderground v.1.15,2013-09-28 08:23:00,
2013-09-28 03:26:00,67.6,50.9,29.73,SSE,156,7.0,13.0,55,0.00,,,0.00,0,Wunderground v.1.15,2013-09-28 08:26:00,
2013-09-28 03:28:00,67.6,50.9,29.72,SE,138,8.0,13.0,55,0.00,,,0.00,0,Wunderground v.1.15,2013-09-28 08:28:00,
2013-09-28 03:29:00,67.5,50.8,29.72,SSE,156,4.0,13.0,55,0.00,,,0.00,0,Wunderground v.1.15,2013-09-28 08:29:00,
2013-09-28 03:31:00,67.5,50.8,29.72,SE,139,8.0,13.0,55,0.00,,,0.00,0,Wunderground v.1.15,2013-09-28 08:31:00,
2013-09-28 03:34:00,67.5,50.8,29.72,SE,136,10.0,13.0,55,0.00,,,0.00,0,Wunderground v.1.15,2013-09-28 08:34:00,
2013-09-28 03:36:00,67.5,50.8,29.72,SE,146,4.0,13.0,55,0.00,,,0.00,0,Wunderground v.1.15,2013-09-28 08:36:00,
2013-09-28 03:37:00,67.5,50.8,29.72,SE,137,12.0,13.0,55,0.00,,,0.00,0,Wunderground v.1.15,2013-09-28 08:37:00,
2013-09-28 03:38:00,67.5,50.8,29.72,SE,136,2.0,13.0,55,0.00,,,0.00,0,Wunderground v.1.15,2013-09-28 08:38:00,
2013-09-28 03:43:00,67.5,50.8,29.72,SE,141,6.0,13.0,55,0.00,,,0.00,0,Wunderground v.1.15,2013-09-28 08:43:00,
2013-09-28 03:44:00,67.5,50.8,29.72,SE,129,3.0,13.0,55,0.00,,,0.00,0,Wunderground v.1.15,2013-09-28 08:44:00,
2013-09-28 03:45:00,67.5,50.8,29.72,SE,137,4.0,13.0,55,0.00,,,0.00,0,Wunderground v.1.15,2013-09-28 08:45:00,
2013-09-28 03:49:00,67.3,50.6,29.72,SE,139,3.0,13.0,55,0.00,,,0.00,0,Wunderground v.1.15,2013-09-28 08:49:00,
2013-09-28 03:50:00,67.3,50.6,29.72,SE,124,8.0,13.0,55,0.00,,,0.00,0,Wunderground v.1.15,2013-09-28 08:50:00,
2013-09-28 03:51:00,67.3,50.6,29.71,SE,139,5.0,13.0,55,0.00,,,0.00,0,Wunderground v.1.15,2013-09-28 08:51:00,
2013-09-28 03:53:00,67.3,51.1,29.72,SSE,162,6.0,13.0,56,0.00,,,0.00,0,Wunderground v.1.15,2013-09-28 08:53:00,
2013-09-28 03:56:00,67.3,50.6,29.72,SE,126,9.0,13.0,55,0.00,,,0.00,0,Wunderground v.1.15,2013-09-28 08:56:00,
2013-09-28 03:57:00,67.3,51.1,29.72,ESE,104,7.0,13.0,56,0.00,,,0.00,0,Wunderground v.1.15,2013-09-28 08:57:00,
2013-09-28 04:08:00,67.0,51.3,29.71,SE,131,4.0,13.0,57,0.00,,,0.00,0,Wunderground v.1.15,2013-09-28 09:08:00,
2013-09-28 04:12:00,67.0,51.3,29.72,SE,132,4.0,13.0,57,0.00,,,0.00,0,Wunderground v.1.15,2013-09-28 09:12:00,
2013-09-28 04:28:00,67.3,51.1,29.71,SE,143,8.0,16.0,56,0.00,,,0.00,0,Wunderground v.1.15,2013-09-28 09:28:00,
2013-09-28 04:29:00,67.3,51.1,29.71,SSE,152,8.0,16.0,56,0.00,,,0.00,0,Wunderground v.1.15,2013-09-28 09:29:00,
2013-09-28 04:30:00,67.3,51.1,29.71,SSE,149,8.0,13.0,56,0.00,,,0.00,0,Wunderground v.1.15,2013-09-28 09:30:00,
2013-09-28 04:34:00,67.3,51.1,29.71,South,177,6.0,13.0,56,0.00,,,0.00,0,Wunderground v.1.15,2013-09-28 09:34:00,
2013-09-28 04:35:00,67.3,51.1,29.71,SSE,160,4.0,13.0,56,0.00,,,0.00,0,Wunderground v.1.15,2013-09-28 09:35:00,
2013-09-28 04:36:00,67.3,51.1,29.71,SE,133,7.0,13.0,56,0.00,,,0.00,0,Wunderground v.1.15,2013-09-28 09:36:00,
2013-09-28 04:37:00,67.2,51.0,29.71,SSE,149,7.0,13.0,56,0.00,,,0.00,0,Wunderground v.1.15,2013-09-28 09:37:00,
2013-09-28 04:42:00,67.1,51.4,29.71,SE,133,13.0,13.0,57,0.00,,,0.00,0,Wunderground v.1.15,2013-09-28 09:42:00,
2013-09-28 04:44:00,67.1,51.4,29.70,SE,142,12.0,13.0,57,0.00,,,0.00,0,Wunderground v.1.15,2013-09-28 09:44:00,
2013-09-28 04:47:00,67.1,50.9,29.70,SSE,148,8.0,13.0,56,0.00,,,0.00,0,Wunderground v.1.15,2013-09-28 09:47:00,
2013-09-28 04:50:00,66.9,51.2,29.70,SE,144,15.0,15.0,57,0.00,,,0.00,0,Wunderground v.1.15,2013-09-28 09:50:00,
2013-09-28 04:51:00,66.9,51.2,29.70,SE,134,11.0,15.0,57,0.00,,,0.00,0,Wunderground v.1.15,2013-09-28 09:51:00,
2013-09-28 04:52:00,66.8,51.1,29.70,SE,145,6.0,15.0,57,0.00,,,0.00,0,Wunderground v.1.15,2013-09-28 09:52:00,
2013-09-28 04:56:00,66.7,51.0,29.70,SSE,149,6.0,16.0,57,0.00,,,0.00,0,Wunderground v.1.15,2013-09-28 09:56:00,
2013-09-28 04:57:00,66.6,50.9,29.69,SE,138,4.0,16.0,57,0.00,,,0.00,0,Wunderground v.1.15,2013-09-28 09:57:00,
2013-09-28 05:00:00,66.5,51.3,29.69,ESE,112,7.0,13.0,58,0.00,,,0.00,0,Wunderground v.1.15,2013-09-28 10:00:00,
2013-09-28 05:01:00,66.5,51.3,29.69,SE,146,10.0,13.0,58,0.00,,,0.00,0,Wunderground v.1.15,2013-09-28 10:01:00,
2013-09-28 05:03:00,66.4,51.2,29.69,SE,137,7.0,14.0,58,0.00,,,0.00,0,Wunderground v.1.15,2013-09-28 10:03:00,
2013-09-28 05:04:00,66.4,51.2,29.69,SE,138,8.0,14.0,58,0.00,,,0.00,0,Wunderground v.1.15,2013-09-28 10:04:00,
2013-09-28 05:09:00,66.1,50.9,29.69,SE,144,12.0,14.0,58,0.00,,,0.00,0,Wunderground v.1.15,2013-09-28 10:09:00,
2013-09-28 05:10:00,66.1,50.9,29.69,SE,124,7.0,13.0,58,0.00,,,0.00,0,Wunderground v.1.15,2013-09-28 10:10:00,
2013-09-28 05:13:00,66.0,50.8,29.69,SE,141,12.0,13.0,58,0.00,,,0.00,0,Wunderground v.1.15,2013-09-28 10:13:00,
2013-09-28 05:14:00,66.0,50.8,29.69,SE,145,8.0,13.0,58,0.00,,,0.00,0,Wunderground v.1.15,2013-09-28 10:14:00,
2013-09-28 05:15:00,66.0,51.3,29.69,SE,140,13.0,13.0,59,0.00,,,0.00,0,Wunderground v.1.15,2013-09-28 10:15:00,
2013-09-28 05:16:00,65.9,51.2,29.69,East,80,4.0,13.0,59,0.00,,,0.00,0,Wunderground v.1.15,2013-09-28 10:16:00,
2013-09-28 05:18:00,65.8,51.1,29.69,SE,135,15.0,15.0,59,0.00,,,0.00,0,Wunderground v.1.15,2013-09-28 10:18:00,
2013-09-28 05:22:00,65.7,51.0,29.70,SE,127,9.0,13.0,59,0.00,,,0.00,0,Wunderground v.1.15,2013-09-28 10:22:00,
2013-09-28 05:23:00,65.7,51.0,29.69,SE,131,12.0,13.0,59,0.00,,,0.00,0,Wunderground v.1.15,2013-09-28 10:23:00,
2013-09-28 05:24:00,65.7,51.0,29.69,ESE,123,5.0,13.0,59,0.00,,,0.00,0,Wunderground v.1.15,2013-09-28 10:24:00,
2013-09-28 05:26:00,65.6,50.9,29.69,SE,139,4.0,13.0,59,0.00,,,0.00,0,Wunderground v.1.15,2013-09-28 10:26:00,
2013-09-28 05:29:00,65.5,51.2,29.68,SE,128,8.0,13.0,60,0.00,,,0.00,0,Wunderground v.1.15,2013-09-28 10:29:00,
2013-09-28 05:30:00,65.4,50.7,29.69,SE,124,10.0,13.0,59,0.00,,,0.00,0,Wunderground v.1.15,2013-09-28 10:30:00,
2013-09-28 05:31:00,65.4,51.1,29.69,SE,126,4.0,13.0,60,0.00,,,0.00,0,Wunderground v.1.15,2013-09-28 10:31:00,
2013-09-28 05:32:00,65.4,51.1,29.69,ESE,104,6.0,13.0,60,0.00,,,0.00,0,Wunderground v.1.15,2013-09-28 10:32:00,
2013-09-28 05:37:00,65.3,51.1,29.69,SE,142,14.0,14.0,60,0.00,,,0.00,0,Wunderground v.1.15,2013-09-28 10:37:00,
2013-09-28 05:38:00,65.3,51.1,29.69,SE,141,5.0,14.0,60,0.00,,,0.00,0,Wunderground v.1.15,2013-09-28 10:38:00,
2013-09-28 05:40:00,65.3,51.1,29.69,SSE,147,9.0,13.0,60,0.00,,,0.00,0,Wunderground v.1.15,2013-09-28 10:40:00,
2013-09-28 05:42:00,65.3,51.1,29.69,SSE,152,9.0,13.0,60,0.00,,,0.00,0,Wunderground v.1.15,2013-09-28 10:42:00,
2013-09-28 05:45:00,65.2,51.0,29.68,SE,130,9.0,13.0,60,0.00,,,0.00,0,Wunderground v.1.15,2013-09-28 10:45:00,
2013-09-28 05:49:00,65.2,51.0,29.68,SSE,151,9.0,14.0,60,0.00,,,0.00,0,Wunderground v.1.15,2013-09-28 10:49:00,
2013-09-28 05:50:00,65.2,51.0,29.68,SE,140,8.0,13.0,60,0.00,,,0.00,0,Wunderground v.1.15,2013-09-28 10:50:00,
2013-09-28 05:52:00,65.2,51.0,29.68,SE,131,6.0,13.0,60,0.00,,,0.00,0,Wunderground v.1.15,2013-09-28 10:52:00,
2013-09-28 05:54:00,65.2,51.0,29.68,SSE,147,3.0,13.0,60,0.00,,,0.00,0,Wunderground v.1.15,2013-09-28 10:54:00,
2013-09-28 05:55:00,65.1,50.9,29.68,SSE,149,10.0,13.0,60,0.00,,,0.00,0,Wunderground v.1.15,2013-09-28 10:55:00,
2013-09-28 05:57:00,65.1,50.9,29.68,SE,127,7.0,13.0,60,0.00,,,0.00,0,Wunderground v.1.15,2013-09-28 10:57:00,
2013-09-28 05:58:00,65.1,50.9,29.67,SE,140,8.0,13.0,60,0.00,,,0.00,0,Wunderground v.1.15,2013-09-28 10:58:00,
2013-09-28 06:02:00,65.1,51.3,29.67,SE,128,8.0,13.0,61,0.00,,,0.00,0,Wunderground v.1.15,2013-09-28 11:02:00,
2013-09-28 06:03:00,65.1,50.9,29.68,SE,145,12.0,13.0,60,0.00,,,0.00,0,Wunderground v.1.15,2013-09-28 11:03:00,
2013-09-28 06:08:00,65.1,51.3,29.67,South,181,8.0,13.0,61,0.00,,,0.00,0,Wunderground v.1.15,2013-09-28 11:08:00,
2013-09-28 06:09:00,65.1,50.9,29.67,SE,129,8.0,13.0,60,0.00,,,0.00,0,Wunderground v.1.15,2013-09-28 11:09:00,
2013-09-28 06:11:00,65.1,50.9,29.67,SE,137,3.0,13.0,60,0.00,,,0.00,0,Wunderground v.1.15,2013-09-28 11:11:00,
2013-09-28 06:12:00,65.1,51.3,29.67,SE,146,9.0,13.0,61,0.00,,,0.00,0,Wunderground v.1.15,2013-09-28 11:12:00,
2013-09-28 06:14:00,65.0,51.2,29.67,ESE,102,3.0,13.0,61,0.00,,,0.00,0,Wunderground v.1.15,2013-09-28 11:14:00,
2013-09-28 06:16:00,65.0,51.2,29.67,SE,140,9.0,13.0,61,0.00,,,0.00,0,Wunderground v.1.15,2013-09-28 11:16:00,
2013-09-28 06:20:00,64.9,51.1,29.67,ESE,120,2.0,13.0,61,0.00,,,0.00,0,Wunderground v.1.15,2013-09-28 11:20:00,
2013-09-28 06:21:00,64.9,51.1,29.67,SE,131,5.0,13.0,61,0.00,,,0.00,0,Wunderground v.1.15,2013-09-28 11:21:00,
2013-09-28 06:24:00,64.8,51.0,29.67,East,101,3.0,13.0,61,0.00,,,0.00,0,Wunderground v.1.15,2013-09-28 11:24:00,
2013-09-28 06:25:00,64.8,51.0,29.67,SE,146,10.0,13.0,61,0.00,,,0.00,0,Wunderground v.1.15,2013-09-28 11:25:00,
2013-09-28 06:26:00,64.8,51.0,29.67,ESE,120,10.0,13.0,61,0.00,,,0.00,0,Wunderground v.1.15,2013-09-28 11:26:00,
2013-09-28 06:27:00,64.8,51.0,29.67,SSE,150,5.0,13.0,61,0.00,,,0.00,0,Wunderground v.1.15,2013-09-28 11:27:00,
2013-09-28 06:29:00,64.8,51.5,29.67,SE,132,4.0,13.0,62,0.00,,,0.00,0,Wunderground v.1.15,2013-09-28 11:29:00,
2013-09-28 06:32:00,64.8,51.5,29.67,SSE,148,15.0,15.0,62,0.00,,,0.00,0,Wunderground v.1.15,2013-09-28 11:32:00,
2013-09-28 06:33:00,64.8,51.5,29.67,ESE,108,3.0,15.0,62,0.00,,,0.00,0,Wunderground v.1.15,2013-09-28 11:33:00,
2013-09-28 06:36:00,64.8,51.5,29.67,SSE,164,9.0,15.0,62,0.00,,,0.00,0,Wunderground v.1.15,2013-09-28 11:36:00,
2013-09-28 06:37:00,64.7,51.4,29.67,SE,133,9.0,15.0,62,0.00,,,0.00,0,Wunderground v.1.15,2013-09-28 11:37:00,
2013-09-28 06:39:00,64.7,51.4,29.67,ESE,116,5.0,15.0,62,0.00,,,0.00,0,Wunderground v.1.15,2013-09-28 11:39:00,
2013-09-28 06:42:00,64.7,51.4,29.67,South,172,9.0,13.0,62,0.00,,,0.00,0,Wunderground v.1.15,2013-09-28 11:42:00,
2013-09-28 06:43:00,64.7,51.4,29.67,SE,131,10.0,13.0,62,0.00,,,0.00,0,Wunderground v.1.15,2013-09-28 11:43:00,
2013-09-28 06:46:00,64.7,51.4,29.67,ESE,105,4.0,13.0,62,0.00,,,0.00,0,Wunderground v.1.15,2013-09-28 11:46:00,
2013-09-28 06:47:00,64.7,51.4,29.66,SE,145,15.0,15.0,62,0.00,,,0.00,0,Wunderground v.1.15,2013-09-28 11:47:00,
2013-09-28 06:49:00,64.7,51.4,29.66,SSE,148,9.0,15.0,62,0.00,,,0.00,0,Wunderground v.1.15,2013-09-28 11:49:00,
2013-09-28 06:53:00,64.7,51.4,29.66,SE,146,4.0,13.0,62,0.00,,,0.00,0,Wunderground v.1.15,2013-09-28 11:53:00,
2013-09-28 06:54:00,64.7,51.4,29.66,ESE,115,4.0,13.0,62,0.00,,,0.00,0,Wunderground v.1.15,2013-09-28 11:54:00,
2013-09-28 06:55:00,64.7,51.4,29.65,SSE,153,8.0,13.0,62,0.00,,,0.00,0,Wunderground v.1.15,2013-09-28 11:55:00,
2013-09-28 06:56:00,64.7,51.4,29.66,East,80,6.0,13.0,62,0.00,,,0.00,0,Wunderground v.1.15,2013-09-28 11:56:00,
2013-09-28 06:59:00,64.6,51.7,29.65,ESE,118,5.0,13.0,63,0.00,,,0.00,0,Wunderground v.1.15,2013-09-28 11:59:00,
2013-09-28 07:02:00,64.6,51.7,29.66,SSE,156,8.0,13.0,63,0.00,,,0.00,0,Wunderground v.1.15,2013-09-28 12:02:00,
2013-09-28 07:03:00,64.6,51.7,29.66,SE,142,7.0,13.0,63,0.00,,,0.00,0,Wunderground v.1.15,2013-09-28 12:03:00,
2013-09-28 07:04:00,64.6,51.7,29.66,SSE,160,10.0,13.0,63,0.00,,,0.00,0,Wunderground v.1.15,2013-09-28 12:04:00,
2013-09-28 07:07:00,64.6,51.7,29.66,SE,132,10.0,13.0,63,0.00,,,0.00,0,Wunderground v.1.15,2013-09-28 12:07:00,
2013-09-28 07:09:00,64.6,51.7,29.66,SE,146,9.0,17.0,63,0.00,,,0.00,0,Wunderground v.1.15,2013-09-28 12:09:00,
2013-09-28 07:10:00,64.7,51.8,29.66,SE,137,15.0,15.0,63,0.00,,,0.00,0,Wunderground v.1.15,2013-09-28 12:10:00,
2013-09-28 07:11:00,64.7,51.8,29.65,SE,133,10.0,15.0,63,0.00,,,0.00,0,Wunderground v.1.15,2013-09-28 12:11:00,
2013-09-28 07:12:00,64.7,51.8,29.65,East,92,6.0,15.0,63,0.00,,,0.00,0,Wunderground v.1.15,2013-09-28 12:12:00,
2013-09-28 07:18:00,64.7,52.2,29.65,SSE,157,7.0,15.0,64,0.00,,,0.00,0,Wunderground v.1.15,2013-09-28 12:18:00,
2013-09-28 07:19:00,64.7,52.2,29.65,ESE,112,9.0,15.0,64,0.00,,,0.00,0,Wunderground v.1.15,2013-09-28 12:19:00,
2013-09-28 07:20:00,64.6,52.1,29.65,ESE,123,5.0,13.0,64,0.00,,,0.00,0,Wunderground v.1.15,2013-09-28 12:20:00,
2013-09-28 07:23:00,64.6,52.1,29.65,East,95,4.0,13.0,64,0.00,,,0.00,0,Wunderground v.1.15,2013-09-28 12:23:00,
2013-09-28 07:24:00,64.6,52.1,29.65,SE,138,7.0,13.0,64,0.00,,,0.00,0,Wunderground v.1.15,2013-09-28 12:24:00,
2013-09-28 07:25:00,64.7,52.2,29.65,SE,142,9.0,13.0,64,0.00,,,0.00,0,Wunderground v.1.15,2013-09-28 12:25:00,
2013-09-28 07:27:00,64.7,52.2,29.66,SSE,156,10.0,13.0,64,0.00,,,0.00,0,Wunderground v.1.15,2013-09-28 12:27:00,
2013-09-28 07:29:00,64.7,52.7,29.66,SSE,153,10.0,13.0,65,0.00,,,0.00,0,Wunderground v.1.15,2013-09-28 12:29:00,
2013-09-28 07:32:00,64.8,52.8,29.65,SE,139,8.0,13.0,65,0.00,,,0.00,0,Wunderground v.1.15,2013-09-28 12:32:00,
2013-09-28 07:33:00,64.8,52.3,29.65,SE,129,13.0,13.0,64,0.00,,,0.00,0,Wunderground v.1.15,2013-09-28 12:33:00,
2013-09-28 07:34:00,64.9,52.4,29.65,SSE,164,7.0,13.0,64,0.00,,,0.00,0,Wunderground v.1.15,2013-09-28 12:34:00,
2013-09-28 07:37:00,64.9,52.8,29.65,SSE,167,9.0,13.0,65,0.00,,,0.00,0,Wunderground v.1.15,2013-09-28 12:37:00,
2013-09-28 07:39:00,64.9,52.4,29.65,SE,144,10.0,13.0,64,0.00,,,0.00,0,Wunderground v.1.15,2013-09-28 12:39:00,
2013-09-28 07:40:00,64.9,52.8,29.65,SE,139,10.0,13.0,65,0.00,,,0.00,0,Wunderground v.1.15,2013-09-28 12:40:00,
2013-09-28 07:41:00,64.9,52.8,29.65,SE,135,12.0,13.0,65,0.00,,,0.00,0,Wunderground v.1.15,2013-09-28 12:41:00,
2013-09-28 07:43:00,65.0,52.9,29.66,SE,140,4.0,13.0,65,0.00,,,0.00,0,Wunderground v.1.15,2013-09-28 12:43:00,
2013-09-28 07:46:00,65.2,52.7,29.65,South,176,11.0,18.0,64,0.00,,,0.00,0,Wunderground v.1.15,2013-09-28 12:46:00,
2013-09-28 07:48:00,65.3,52.8,29.65,SSE,158,7.0,18.0,64,0.00,,,0.00,0,Wunderground v.1.15,2013-09-28 12:48:00,
2013-09-28 07:51:00,65.3,52.8,29.65,SSE,155,10.0,13.0,64,0.00,,,0.00,0,Wunderground v.1.15,2013-09-28 12:51:00,
2013-09-28 07:52:00,65.3,52.8,29.65,SE,127,9.0,13.0,64,0.00,,,0.00,0,Wunderground v.1.15,2013-09-28 12:52:00,
2013-09-28 07:53:00,65.3,52.8,29.65,SE,146,7.0,13.0,64,0.00,,,0.00,0,Wunderground v.1.15,2013-09-28 12:53:00,
2013-09-28 07:56:00,65.3,52.8,29.66,SE,125,8.0,13.0,64,0.00,,,0.00,0,Wunderground v.1.15,2013-09-28 12:56:00,
2013-09-28 07:57:00,65.3,52.8,29.65,SE,133,13.0,13.0,64,0.00,,,0.00,0,Wunderground v.1.15,2013-09-28 12:57:00,
2013-09-28 08:00:00,65.3,52.8,29.65,SE,142,11.0,13.0,64,0.00,,,0.00,0,Wunderground v.1.15,2013-09-28 13:00:00,
2013-09-28 08:02:00,65.3,52.8,29.64,South,178,9.0,13.0,64,0.00,,,0.00,0,Wunderground v.1.15,2013-09-28 13:02:00,
2013-09-28 08:03:00,65.3,53.2,29.64,SSE,168,9.0,13.0,65,0.00,,,0.00,0,Wunderground v.1.15,2013-09-28 13:03:00,
2013-09-28 08:04:00,65.3,52.8,29.64,SE,132,17.0,17.0,64,0.00,,,0.00,0,Wunderground v.1.15,2013-09-28 13:04:00,
2013-09-28 08:05:00,65.3,52.8,29.64,SE,135,11.0,17.0,64,0.00,,,0.00,0,Wunderground v.1.15,2013-09-28 13:05:00,
2013-09-28 08:09:00,65.4,53.3,29.64,SE,141,2.0,17.0,65,0.00,,,0.00,0,Wunderground v.1.15,2013-09-28 13:09:00,
2013-09-28 08:10:00,65.4,53.3,29.64,SSE,162,5.0,13.0,65,0.00,,,0.00,0,Wunderground v.1.15,2013-09-28 13:10:00,
2013-09-28 08:11:00,65.5,53.4,29.64,SSE,166,8.0,13.0,65,0.00,,,0.00,0,Wunderground v.1.15,2013-09-28 13:11:00,
2013-09-28 08:14:00,65.5,53.4,29.64,SSE,148,9.0,13.0,65,0.00,,,0.00,0,Wunderground v.1.15,2013-09-28 13:14:00,
2013-09-28 08:16:00,65.6,53.5,29.64,SSE,156,4.0,13.0,65,0.00,,,0.00,0,Wunderground v.1.15,2013-09-28 13:16:00,
2013-09-28 08:17:00,65.6,53.1,29.64,SE,138,6.0,13.0,64,0.00,,,0.00,0,Wunderground v.1.15,2013-09-28 13:17:00,
2013-09-28 08:21:00,65.8,53.3,29.64,SSE,150,2.0,13.0,64,0.00,,,0.00,0,Wunderground v.1.15,2013-09-28 13:21:00,
2013-09-28 08:22:00,65.8,53.3,29.64,East,96,4.0,13.0,64,0.00,,,0.00,0,Wunderground v.1.15,2013-09-28 13:22:00,
2013-09-28 08:23:00,65.8,53.3,29.64,SE,146,9.0,13.0,64,0.00,,,0.00,0,Wunderground v.1.15,2013-09-28 13:23:00,
2013-09-28 08:24:00,65.9,53.4,29.64,SSE,150,7.0,13.0,64,0.00,,,0.00,0,Wunderground v.1.15,2013-09-28 13:24:00,
2013-09-28 08:28:00,66.0,53.5,29.64,SSE,160,15.0,15.0,64,0.00,,,0.00,0,Wunderground v.1.15,2013-09-28 13:28:00,
2013-09-28 08:30:00,66.1,53.6,29.64,SE,133,6.0,13.0,64,0.00,,,0.00,0,Wunderground v.1.15,2013-09-28 13:30:00,
2013-09-28 08:33:00,66.3,53.8,29.64,South,179,5.0,13.0,64,0.00,,,0.00,0,Wunderground v.1.15,2013-09-28 13:33:00,
2013-09-28 08:34:00,66.3,53.8,29.64,SSE,147,10.0,13.0,64,0.00,,,0.00,0,Wunderground v.1.15,2013-09-28 13:34:00,
2013-09-28 08:35:00,66.3,53.8,29.64,South,177,9.0,13.0,64,0.00,,,0.00,0,Wunderground v.1.15,2013-09-28 13:35:00,
2013-09-28 08:38:00,66.3,53.8,29.64,SSE,151,6.0,13.0,64,0.00,,,0.00,0,Wunderground v.1.15,2013-09-28 13:38:00,
2013-09-28 08:39:00,66.3,53.8,29.64,SSE,164,7.0,13.0,64,0.00,,,0.00,0,Wunderground v.1.15,2013-09-28 13:39:00,
2013-09-28 08:40:00,66.4,54.3,29.64,South,188,11.0,13.0,65,0.00,,,0.00,0,Wunderground v.1.15,2013-09-28 13:40:00,
2013-09-28 08:41:00,66.3,54.2,29.64,SSE,155,8.0,13.0,65,0.00,,,0.00,0,Wunderground v.1.15,2013-09-28 13:41:00,
2013-09-28 08:44:00,66.2,54.5,29.64,SSE,165,11.0,13.0,66,0.00,,,0.00,0,Wunderground v.1.15,2013-09-28 13:44:00,
2013-09-28 08:48:00,65.9,58.1,29.64,South,179,9.0,16.0,76,0.00,,,0.00,0,Wunderground v.1.15,2013-09-28 13:48:00,
2013-09-28 08:49:00,65.9,58.8,29.64,SE,146,11.0,16.0,78,0.00,,,0.00,0,Wunderground v.1.15,2013-09-28 13:49:00,
2013-09-28 08:50:00,65.9,59.2,29.64,SSE,148,7.0,13.0,79,0.00,,,0.00,0,Wunderground v.1.15,2013-09-28 13:50:00,
2013-09-28 08:55:00,65.8,59.8,29.63,South,183,9.0,13.0,81,0.00,,,0.00,0,Wunderground v.1.15,2013-09-28 13:55:00,
2013-09-28 08:56:00,65.8,59.8,29.64,SE,128,12.0,13.0,81,0.00,,,0.00,0,Wunderground v.1.15,2013-09-28 13:56:00,
2013-09-28 09:00:00,65.8,59.8,29.63,SSE,149,10.0,13.0,81,0.00,,,0.00,0,Wunderground v.1.15,2013-09-28 14:00:00,
2013-09-28 09:01:00,65.8,59.8,29.63,SE,138,6.0,13.0,81,0.00,,,0.00,0,Wunderground v.1.15,2013-09-28 14:01:00,
2013-09-28 09:03:00,65.8,59.8,29.63,SSW,196,5.0,13.0,81,0.00,,,0.00,0,Wunderground v.1.15,2013-09-28 14:03:00,
2013-09-28 09:06:00,65.8,59.8,29.63,South,177,11.0,13.0,81,0.00,,,0.00,0,Wunderground v.1.15,2013-09-28 14:06:00,
2013-09-28 09:09:00,65.8,60.2,29.63,SSE,148,5.0,13.0,82,0.00,,,0.00,0,Wunderground v.1.15,2013-09-28 14:09:00,
2013-09-28 09:10:00,65.8,60.2,29.64,South,171,15.0,15.0,82,0.00,,,0.00,0,Wunderground v.1.15,2013-09-28 14:10:00,
2013-09-28 09:12:00,65.8,60.2,29.63,SSE,156,8.0,15.0,82,0.00,,,0.00,0,Wunderground v.1.15,2013-09-28 14:12:00,
2013-09-28 09:13:00,65.8,60.2,29.63,SE,136,15.0,15.0,82,0.00,,,0.00,0,Wunderground v.1.15,2013-09-28 14:13:00,
2013-09-28 09:17:00,65.9,60.2,29.62,SE,145,7.0,15.0,82,0.00,,,0.00,0,Wunderground v.1.15,2013-09-28 14:17:00,
2013-09-28 09:18:00,65.9,60.2,29.62,SSE,159,6.0,15.0,82,0.00,,,0.00,0,Wunderground v.1.15,2013-09-28 14:18:00,
2013-09-28 09:19:00,65.9,60.2,29.63,SSE,147,9.0,15.0,82,0.00,,,0.00,0,Wunderground v.1.15,2013-09-28 14:19:00,
2013-09-28 09:20:00,66.0,60.3,29.63,South,182,4.0,13.0,82,0.00,,,0.00,0,Wunderground v.1.15,2013-09-28 14:20:00,
2013-09-28 09:22:00,66.1,60.1,29.62,South,184,10.0,13.0,81,0.00,,,0.00,0,Wunderground v.1.15,2013-09-28 14:22:00,
2013-09-28 09:23:00,66.1,60.1,29.62,SE,143,17.0,17.0,81,0.00,,,0.00,0,Wunderground v.1.15,2013-09-28 14:23:00,
2013-09-28 09:27:00,66.3,60.3,29.62,SE,135,11.0,18.0,81,0.00,,,0.00,0,Wunderground v.1.15,2013-09-28 14:27:00,
2013-09-28 09:28:00,66.3,60.3,29.62,South,173,4.0,18.0,81,0.00,,,0.00,0,Wunderground v.1.15,2013-09-28 14:28:00,
2013-09-28 09:29:00,66.3,60.3,29.62,SSW,199,6.0,18.0,81,0.00,,,0.00,0,Wunderground v.1.15,2013-09-28 14:29:00,
2013-09-28 09:31:00,66.3,60.3,29.62,SE,126,11.0,13.0,81,0.00,,,0.00,0,Wunderground v.1.15,2013-09-28 14:31:00,
2013-09-28 09:32:00,66.3,60.3,29.62,SE,143,11.0,13.0,81,0.00,,,0.00,0,Wunderground v.1.15,2013-09-28 14:32:00,
2013-09-28 09:36:00,66.3,60.3,29.62,South,178,12.0,15.0,81,0.00,,,0.00,0,Wunderground v.1.15,2013-09-28 14:36:00,
2013-09-28 09:37:00,66.3,60.3,29.62,SW,217,10.0,15.0,81,0.00,,,0.00,0,Wunderground v.1.15,2013-09-28 14:37:00,
2013-09-28 09:39:00,66.3,60.3,29.62,SSE,151,9.0,15.0,81,0.00,,,0.00,0,Wunderground v.1.15,2013-09-28 14:39:00,
2013-09-28 09:40:00,66.3,60.3,29.61,SE,144,14.0,14.0,81,0.00,,,0.00,0,Wunderground v.1.15,2013-09-28 14:40:00,
2013-09-28 09:41:00,66.3,60.3,29.61,SE,142,7.0,14.0,81,0.00,,,0.00,0,Wunderground v.1.15,2013-09-28 14:41:00,
2013-09-28 09:43:00,66.2,60.2,29.61,SSE,148,9.0,14.0,81,0.00,,,0.00,0,Wunderground v.1.15,2013-09-28 14:43:00,
2013-09-28 09:44:00,66.2,60.2,29.61,South,175,9.0,14.0,81,0.00,,,0.00,0,Wunderground v.1.15,2013-09-28 14:44:00,
2013-09-28 09:46:00,66.3,60.3,29.61,SE,136,4.0,14.0,81,0.00,,,0.00,0,Wunderground v.1.15,2013-09-28 14:46:00,
2013-09-28 09:47:00,66.3,60.3,29.61,East,95,6.0,14.0,81,0.00,,,0.00,0,Wunderground v.1.15,2013-09-28 14:47:00,
2013-09-28 09:50:00,66.3,60.3,29.62,SE,124,9.0,13.0,81,0.00,,,0.00,0,Wunderground v.1.15,2013-09-28 14:50:00,
2013-09-28 09:52:00,66.1,60.4,29.62,South,177,7.0,13.0,82,0.00,,,0.00,0,Wunderground v.1.15,2013-09-28 14:52:00,
2013-09-28 09:53:00,65.9,60.6,29.62,SSE,156,13.0,13.0,83,0.00,,,0.00,0,Wunderground v.1.15,2013-09-28 14:53:00,
2013-09-28 09:58:00,65.2,60.9,29.62,SSE,161,11.0,13.0,86,0.00,,,0.00,0,Wunderground v.1.15,2013-09-28 14:58:00,
2013-09-28 09:59:00,65.0,61.0,29.62,SSE,149,7.0,13.0,87,0.00,,,0.00,0,Wunderground v.1.15,2013-09-28 14:59:00,
2013-09-28 10:01:00,64.8,61.5,29.62,SE,146,5.0,13.0,89,0.00,,,0.00,0,Wunderground v.1.15,2013-09-28 15:01:00,
2013-09-28 10:03:00,64.6,61.6,29.62,SSE,167,3.0,13.0,90,0.00,,,0.00,0,Wunderground v.1.15,2013-09-28 15:03:00,
2013-09-28 10:04:00,64.5,61.5,29.62,South,173,11.0,13.0,90,0.00,,,0.00,0,Wunderground v.1.15,2013-09-28 15:04:00,
2013-09-28 10:05:00,64.5,61.8,29.62,SSE,148,5.0,13.0,91,0.00,,,0.00,0,Wunderground v.1.15,2013-09-28 15:05:00,
2013-09-28 10:08:00,64.4,62.0,29.61,South,176,10.0,13.0,92,0.00,,,0.00,0,Wunderground v.1.15,2013-09-28 15:08:00,
2013-09-28 10:10:00,64.3,62.2,29.61,SE,132,6.0,13.0,93,0.00,,,0.00,0,Wunderground v.1.15,2013-09-28 15:10:00,
2013-09-28 10:12:00,64.3,62.5,29.61,SSE,163,12.0,13.0,94,0.00,,,0.00,0,Wunderground v.1.15,2013-09-28 15:12:00,
2013-09-28 10:13:00,64.3,62.5,29.62,SSE,147,4.0,13.0,94,0.00,,,0.00,0,Wunderground v.1.15,2013-09-28 15:13:00,
2013-09-28 10:14:00,64.3,62.5,29.62,South,182,8.0,13.0,94,0.00,,,0.00,0,Wunderground v.1.15,2013-09-28 15:14:00,
2013-09-28 10:15:00,64.3,62.8,29.62,South,172,7.0,13.0,95,0.00,,,0.00,0,Wunderground v.1.15,2013-09-28 15:15:00,
2013-09-28 10:18:00,64.2,63.0,29.62,SSE,167,14.0,14.0,96,0.00,,,0.00,0,Wunderground v.1.15,2013-09-28 15:18:00,
2013-09-28 10:21:00,64.2,63.3,29.61,South,182,10.0,13.0,97,0.00,,,0.00,0,Wunderground v.1.15,2013-09-28 15:21:00,
2013-09-28 10:23:00,64.2,63.3,29.62,SE,129,4.0,13.0,97,0.00,,,0.00,0,Wunderground v.1.15,2013-09-28 15:23:00,
2013-09-28 10:26:00,64.2,63.6,29.62,South,174,5.0,13.0,98,0.00,,,0.00,0,Wunderground v.1.15,2013-09-28 15:26:00,
2013-09-28 10:27:00,64.2,63.6,29.62,ESE,123,8.0,13.0,98,0.00,,,0.00,0,Wunderground v.1.15,2013-09-28 15:27:00,
2013-09-28 10:29:00,64.2,63.6,29.62,SE,142,10.0,13.0,98,0.00,,,0.00,0,Wunderground v.1.15,2013-09-28 15:29:00,
2013-09-28 10:33:00,64.3,64.0,29.62,SSE,149,7.0,13.0,99,0.00,,,0.00,0,Wunderground v.1.15,2013-09-28 15:33:00,
2013-09-28 10:35:00,64.3,64.0,29.62,SSE,156,10.0,13.0,99,0.00,,,0.00,0,Wunderground v.1.15,2013-09-28 15:35:00,
2013-09-28 10:36:00,64.3,64.0,29.62,SSE,167,12.0,13.0,99,0.00,,,0.00,0,Wunderground v.1.15,2013-09-28 15:36:00,
2013-09-28 10:37:00,64.3,64.0,29.62,SE,146,6.0,13.0,99,0.00,,,0.00,0,Wunderground v.1.15,2013-09-28 15:37:00,
2013-09-28 10:42:00,64.2,64.2,29.62,South,174,6.0,13.0,100,0.00,,,0.00,0,Wunderground v.1.15,2013-09-28 15:42:00,
2013-09-28 10:44:00,64.1,64.1,29.62,South,171,6.0,13.0,100,0.00,,,0.00,0,Wunderground v.1.15,2013-09-28 15:44:00,
2013-09-28 10:45:00,64.1,64.1,29.62,SE,144,9.0,13.0,100,0.00,,,0.00,0,Wunderground v.1.15,2013-09-28 15:45:00,
2013-09-28 10:47:00,64.0,64.0,29.62,SE,141,5.0,13.0,100,0.00,,,0.00,0,Wunderground v.1.15,2013-09-28 15:47:00,
2013-09-28 10:49:00,64.0,64.0,29.62,SSE,157,8.0,13.0,100,0.00,,,0.00,0,Wunderground v.1.15,2013-09-28 15:49:00,
2013-09-28 10:51:00,64.0,64.0,29.61,South,181,9.0,13.0,100,0.00,,,0.00,0,Wunderground v.1.15,2013-09-28 15:51:00,
2013-09-28 10:52:00,64.0,64.0,29.62,South,177,7.0,13.0,100,0.00,,,0.00,0,Wunderground v.1.15,2013-09-28 15:52:00,
2013-09-28 10:55:00,63.9,63.9,29.62,SE,136,2.0,13.0,100,0.00,,,0.00,0,Wunderground v.1.15,2013-09-28 15:55:00,
2013-09-28 10:57:00,63.9,63.9,29.62,SSE,159,10.0,13.0,100,0.00,,,0.00,0,Wunderground v.1.15,2013-09-28 15:57:00,
2013-09-28 10:58:00,63.9,63.9,29.62,SSW,196,7.0,13.0,100,0.00,,,0.00,0,Wunderground v.1.15,2013-09-28 15:58:00,
2013-09-28 11:00:00,63.8,63.8,29.61,SE,135,10.0,13.0,100,0.00,,,0.00,0,Wunderground v.1.15,2013-09-28 16:00:00,
2013-09-28 11:02:00,63.8,63.8,29.62,SSE,157,6.0,13.0,100,0.00,,,0.00,0,Wunderground v.1.15,2013-09-28 16:02:00,
2013-09-28 11:03:00,63.8,63.8,29.62,SE,140,7.0,13.0,100,0.00,,,0.00,0,Wunderground v.1.15,2013-09-28 16:03:00,
2013-09-28 11:04:00,63.8,63.8,29.62,SE,142,6.0,13.0,100,0.00,,,0.00,0,Wunderground v.1.15,2013-09-28 16:04:00,
2013-09-28 11:06:00,63.7,63.7,29.62,South,184,5.0,13.0,100,0.00,,,0.00,0,Wunderground v.1.15,2013-09-28 16:06:00,
2013-09-28 11:09:00,63.7,63.7,29.62,SSE,163,7.0,13.0,100,0.00,,,0.00,0,Wunderground v.1.15,2013-09-28 16:09:00,
2013-09-28 11:10:00,63.8,63.8,29.62,South,172,6.0,13.0,100,0.00,,,0.00,0,Wunderground v.1.15,2013-09-28 16:10:00,
2013-09-28 11:11:00,63.7,63.7,29.62,SSW,192,8.0,13.0,100,0.00,,,0.00,0,Wunderground v.1.15,2013-09-28 16:11:00,
2013-09-28 11:12:00,63.7,63.7,29.62,SSE,150,7.0,13.0,100,0.00,,,0.00,0,Wunderground v.1.15,2013-09-28 16:12:00,
2013-09-28 11:14:00,63.8,63.8,29.62,SW,216,4.0,13.0,100,0.00,,,0.00,0,Wunderground v.1.15,2013-09-28 16:14:00,
2013-09-28 11:16:00,63.8,63.8,29.62,South,175,10.0,13.0,100,0.00,,,0.00,0,Wunderground v.1.15,2013-09-28 16:16:00,
2013-09-28 11:17:00,63.8,63.8,29.62,SSW,196,6.0,13.0,100,0.00,,,0.00,0,Wunderground v.1.15,2013-09-28 16:17:00,
2013-09-28 11:20:00,63.9,63.9,29.63,SW,232,5.0,13.0,100,0.00,,,0.00,0,Wunderground v.1.15,2013-09-28 16:20:00,
2013-09-28 11:21:00,63.9,63.9,29.63,WSW,253,6.0,13.0,100,0.00,,,0.00,0,Wunderground v.1.15,2013-09-28 16:21:00,
2013-09-28 11:22:00,63.9,63.9,29.65,SW,229,12.0,13.0,100,0.00,,,0.00,0,Wunderground v.1.15,2013-09-28 16:22:00,
2013-09-28 11:23:00,62.9,62.9,29.64,WSW,245,11.0,13.0,100,0.00,,,0.00,0,Wunderground v.1.15,2013-09-28 16:23:00,
2013-09-28 11:27:00,59.0,58.2,29.65,WSW,238,11.0,13.0,97,0.00,,,0.00,0,Wunderground v.1.15,2013-09-28 16:27:00,
2013-09-28 11:28:00,58.3,57.5,29.64,WSW,238,10.0,13.0,97,0.00,,,0.00,0,Wunderground v.1.15,2013-09-28 16:28:00,
2013-09-28 11:29:00,57.9,57.3,29.65,WSW,245,9.0,13.0,98,0.00,,,0.00,0,Wunderground v.1.15,2013-09-28 16:29:00,
2013-09-28 11:30:00,57.4,57.1,29.66,WSW,242,7.0,13.0,99,0.00,,,0.00,0,Wunderground v.1.15,2013-09-28 16:30:00,
2013-09-28 11:33:00,56.4,56.4,29.66,SW,228,7.0,13.0,100,0.00,,,0.00,0,Wunderground v.1.15,2013-09-28 16:33:00,
2013-09-28 11:35:00,56.1,56.1,29.66,WSW,250,10.0,13.0,100,0.00,,,0.00,0,Wunderground v.1.15,2013-09-28 16:35:00,
2013-09-28 11:36:00,55.9,55.9,29.66,SW,233,6.0,13.0,100,0.00,,,0.00,0,Wunderground v.1.15,2013-09-28 16:36:00,
2013-09-28 11:38:00,55.6,55.6,29.67,WSW,246,6.0,13.0,100,0.00,,,0.00,0,Wunderground v.1.15,2013-09-28 16:38:00,
2013-09-28 11:42:00,55.2,55.2,29.67,WSW,238,8.0,13.0,100,0.00,,,0.00,0,Wunderground v.1.15,2013-09-28 16:42:00,
2013-09-28 11:44:00,54.9,54.9,29.68,WSW,248,6.0,13.0,100,0.00,,,0.00,0,Wunderground v.1.15,2013-09-28 16:44:00,
2013-09-28 11:45:00,54.9,54.9,29.67,WSW,246,5.0,13.0,100,0.00,,,0.00,0,Wunderground v.1.15,2013-09-28 16:45:00,
2013-09-28 11:49:00,54.6,54.6,29.68,WSW,258,5.0,13.0,100,0.00,,,0.00,0,Wunderground v.1.15,2013-09-28 16:49:00,
2013-09-28 11:51:00,54.5,54.5,29.68,WSW,248,9.0,13.0,100,0.00,,,0.00,0,Wunderground v.1.15,2013-09-28 16:51:00,
2013-09-28 11:52:00,54.4,54.4,29.68,WSW,241,9.0,13.0,100,0.00,,,0.00,0,Wunderground v.1.15,2013-09-28 16:52:00,
2013-09-28 11:53:00,54.3,54.3,29.68,WSW,251,11.0,13.0,100,0.00,,,0.00,0,Wunderground v.1.15,2013-09-28 16:53:00,
2013-09-28 11:54:00,54.1,54.1,29.68,West,259,7.0,13.0,100,0.00,,,0.00,0,Wunderground v.1.15,2013-09-28 16:54:00,
2013-09-28 11:57:00,53.5,53.5,29.69,West,263,7.0,13.0,100,0.00,,,0.00,0,Wunderground v.1.15,2013-09-28 16:57:00,
2013-09-28 11:59:00,53.2,53.2,29.69,West,263,7.0,13.0,100,0.00,,,0.00,0,Wunderground v.1.15,2013-09-28 16:59:00,
2013-09-28 12:00:00,53.1,53.1,29.69,WSW,254,4.0,13.0,100,0.00,,,0.00,0,Wunderground v.1.15,2013-09-28 17:00:00,
2013-09-28 12:01:00,53.0,53.0,29.69,West,260,18.0,18.0,100,0.00,,,0.00,0,Wunderground v.1.15,2013-09-28 17:01:00,
2013-09-28 12:02:00,52.9,52.9,29.69,WSW,254,12.0,18.0,100,0.00,,,0.00,0,Wunderground v.1.15,2013-09-28 17:02:00,
2013-09-28 12:05:00,52.7,52.7,29.69,WSW,256,10.0,18.0,100,0.00,,,0.00,0,Wunderground v.1.15,2013-09-28 17:05:00,
2013-09-28 12:06:00,52.7,52.7,29.70,WSW,253,9.0,18.0,100,0.00,,,0.00,0,Wunderground v.1.15,2013-09-28 17:06:00,
2013-09-28 12:07:00,52.7,52.7,29.69,WSW,248,4.0,18.0,100,0.00,,,0.00,0,Wunderground v.1.15,2013-09-28 17:07:00,
2013-09-28 12:11:00,52.6,52.6,29.69,WSW,238,4.0,13.0,100,0.00,,,0.00,0,Wunderground v.1.15,2013-09-28 17:11:00,
2013-09-28 12:12:00,52.6,52.6,29.69,WSW,244,3.0,13.0,100,0.00,,,0.00,0,Wunderground v.1.15,2013-09-28 17:12:00,
2013-09-28 12:14:00,52.7,52.7,29.70,West,266,7.0,13.0,100,0.00,,,0.00,0,Wunderground v.1.15,2013-09-28 17:14:00,
2013-09-28 12:17:00,52.7,52.7,29.71,WSW,238,4.0,13.0,100,0.00,,,0.00,0,Wunderground v.1.15,2013-09-28 17:17:00,
2013-09-28 12:18:00,52.7,52.7,29.71,WSW,249,8.0,13.0,100,0.00,,,0.00,0,Wunderground v.1.15,2013-09-28 17:18:00,
2013-09-28 12:20:00,52.7,52.7,29.71,WSW,237,4.0,13.0,100,0.00,,,0.00,0,Wunderground v.1.15,2013-09-28 17:20:00,
2013-09-28 12:21:00,52.7,52.7,29.71,WSW,247,5.0,13.0,100,0.00,,,0.00,0,Wunderground v.1.15,2013-09-28 17:21:00,
2013-09-28 12:23:00,52.6,52.6,29.71,WSW,247,4.0,13.0,100,0.00,,,0.00,0,Wunderground v.1.15,2013-09-28 17:23:00,
2013-09-28 12:25:00,52.6,52.6,29.71,WSW,249,4.0,13.0,100,0.00,,,0.00,0,Wunderground v.1.15,2013-09-28 17:25:00,
2013-09-28 12:27:00,52.5,52.5,29.71,West,264,7.0,13.0,100,0.00,,,0.00,0,Wunderground v.1.15,2013-09-28 17:27:00,
2013-09-28 12:28:00,52.5,52.5,29.70,WSW,251,8.0,13.0,100,0.00,,,0.00,0,Wunderground v.1.15,2013-09-28 17:28:00,
2013-09-28 12:33:00,52.4,52.4,29.71,West,271,7.0,13.0,100,0.00,,,0.00,0,Wunderground v.1.15,2013-09-28 17:33:00,
2013-09-28 12:35:00,52.3,52.3,29.71,West,270,7.0,13.0,100,0.00,,,0.00,0,Wunderground v.1.15,2013-09-28 17:35:00,
2013-09-28 12:38:00,52.3,52.3,29.71,West,260,5.0,13.0,100,0.00,,,0.00,0,Wunderground v.1.15,2013-09-28 17:38:00,
2013-09-28 12:41:00,52.3,52.3,29.71,SW,214,4.0,13.0,100,0.00,,,0.00,0,Wunderground v.1.15,2013-09-28 17:41:00,
2013-09-28 12:43:00,52.3,52.3,29.72,WSW,240,3.0,13.0,100,0.00,,,0.00,0,Wunderground v.1.15,2013-09-28 17:43:00,
2013-09-28 12:45:00,52.3,52.3,29.71,West,263,7.0,13.0,100,0.00,,,0.00,0,Wunderground v.1.15,2013-09-28 17:45:00,
2013-09-28 12:47:00,52.2,52.2,29.71,WSW,256,5.0,13.0,100,0.00,,,0.00,0,Wunderground v.1.15,2013-09-28 17:47:00,
2013-09-28 12:50:00,52.3,52.3,29.71,WSW,249,4.0,13.0,100,0.00,,,0.00,0,Wunderground v.1.15,2013-09-28 17:50:00,
2013-09-28 12:52:00,52.3,52.3,29.72,WSW,246,3.0,13.0,100,0.00,,,0.00,0,Wunderground v.1.15,2013-09-28 17:52:00,
2013-09-28 12:53:00,52.3,52.3,29.72,WSW,258,9.0,13.0,100,0.00,,,0.00,0,Wunderground v.1.15,2013-09-28 17:53:00,
2013-09-28 12:56:00,52.4,52.4,29.72,WSW,258,4.0,13.0,100,0.00,,,0.00,0,Wunderground v.1.15,2013-09-28 17:56:00,
2013-09-28 12:58:00,52.4,52.4,29.71,WSW,249,10.0,13.0,100,0.00,,,0.00,0,Wunderground v.1.15,2013-09-28 17:58:00,
2013-09-28 13:00:00,52.4,52.4,29.72,West,267,4.0,13.0,100,0.00,,,0.00,0,Wunderground v.1.15,2013-09-28 18:00:00,
2013-09-28 13:04:00,52.5,52.5,29.72,WSW,248,2.0,13.0,100,0.00,,,0.00,0,Wunderground v.1.15,2013-09-28 18:04:00,
2013-09-28 13:07:00,52.6,52.6,29.72,WSW,252,5.0,13.0,100,0.00,,,0.00,0,Wunderground v.1.15,2013-09-28 18:07:00,
2013-09-28 13:08:00,52.6,52.6,29.72,West,266,6.0,13.0,100,0.00,,,0.00,0,Wunderground v.1.15,2013-09-28 18:08:00,
2013-09-28 13:09:00,52.6,52.6,29.72,WSW,241,5.0,13.0,100,0.00,,,0.00,0,Wunderground v.1.15,2013-09-28 18:09:00,
2013-09-28 13:13:00,52.7,52.7,29.73,WSW,248,2.0,13.0,100,0.00,,,0.00,0,Wunderground v.1.15,2013-09-28 18:13:00,
2013-09-28 13:16:00,52.7,52.7,29.73,SW,224,3.0,13.0,100,0.00,,,0.00,0,Wunderground v.1.15,2013-09-28 18:16:00,
2013-09-28 13:18:00,52.7,52.7,29.72,WSW,245,5.0,13.0,100,0.00,,,0.00,0,Wunderground v.1.15,2013-09-28 18:18:00,
2013-09-28 13:19:00,52.8,52.8,29.72,WSW,239,7.0,13.0,100,0.00,,,0.00,0,Wunderground v.1.15,2013-09-28 18:19:00,
2013-09-28 13:21:00,52.8,52.8,29.72,WSW,256,4.0,13.0,100,0.00,,,0.00,0,Wunderground v.1.15,2013-09-28 18:21:00,
2013-09-28 13:26:00,52.8,52.8,29.72,West,261,4.0,13.0,100,0.00,,,0.00,0,Wunderground v.1.15,2013-09-28 18:26:00,
2013-09-28 13:28:00,52.8,52.8,29.72,West,260,3.0,13.0,100,0.00,,,0.00,0,Wunderground v.1.15,2013-09-28 18:28:00,
2013-09-28 13:30:00,52.9,52.9,29.73,WSW,250,6.0,13.0,100,0.00,,,0.00,0,Wunderground v.1.15,2013-09-28 18:30:00,
2013-09-28 13:33:00,53.0,53.0,29.73,WSW,244,4.0,13.0,100,0.00,,,0.00,0,Wunderground v.1.15,2013-09-28 18:33:00,
2013-09-28 13:36:00,53.1,53.1,29.73,West,267,3.0,13.0,100,0.00,,,0.00,0,Wunderground v.1.15,2013-09-28 18:36:00,
2013-09-28 13:39:00,53.2,53.2,29.74,WSW,257,8.0,13.0,100,0.00,,,0.00,0,Wunderground v.1.15,2013-09-28 18:39:00,
2013-09-28 13:40:00,53.1,53.1,29.74,WSW,248,1.0,13.0,100,0.00,,,0.00,0,Wunderground v.1.15,2013-09-28 18:40:00,
2013-09-28 13:42:00,53.2,53.2,29.74,SW,232,2.0,13.0,100,0.00,,,0.00,0,Wunderground v.1.15,2013-09-28 18:42:00,
2013-09-28 13:46:00,53.3,53.3,29.75,WSW,249,3.0,13.0,100,0.00,,,0.00,0,Wunderground v.1.15,2013-09-28 18:46:00,
2013-09-28 13:47:00,53.4,53.4,29.74,WSW,252,3.0,13.0,100,0.00,,,0.00,0,Wunderground v.1.15,2013-09-28 18:47:00,
2013-09-28 13:48:00,53.4,53.4,29.74,WSW,243,4.0,13.0,100,0.00,,,0.00,0,Wunderground v.1.15,2013-09-28 18:48:00,
2013-09-28 13:53:00,53.6,53.6,29.74,WSW,248,3.0,13.0,100,0.00,,,0.00,0,Wunderground v.1.15,2013-09-28 18:53:00,
2013-09-28 13:55:00,53.6,53.6,29.74,West,260,6.0,13.0,100,0.00,,,0.00,0,Wunderground v.1.15,2013-09-28 18:55:00,
2013-09-28 13:56:00,53.6,53.6,29.74,West,261,3.0,13.0,100,0.00,,,0.00,0,Wunderground v.1.15,2013-09-28 18:56:00,
2013-09-28 13:57:00,53.6,53.6,29.74,SW,236,3.0,13.0,100,0.00,,,0.00,0,Wunderground v.1.15,2013-09-28 18:57:00,
2013-09-28 14:01:00,53.7,53.7,29.74,WSW,251,2.0,13.0,100,0.00,,,0.00,0,Wunderground v.1.15,2013-09-28 19:01:00,
2013-09-28 14:02:00,53.7,53.7,29.74,WSW,240,2.0,13.0,100,0.00,,,0.00,0,Wunderground v.1.15,2013-09-28 19:02:00,
2013-09-28 14:05:00,53.7,53.7,29.74,WSW,253,2.0,13.0,100,0.00,,,0.00,0,Wunderground v.1.15,2013-09-28 19:05:00,
2013-09-28 14:07:00,53.7,53.7,29.74,WSW,256,4.0,13.0,100,0.00,,,0.00,0,Wunderground v.1.15,2013-09-28 19:07:00,
2013-09-28 14:09:00,54.0,54.0,29.74,WSW,243,3.0,13.0,100,0.00,,,0.00,0,Wunderground v.1.15,2013-09-28 19:09:00,
2013-09-28 14:11:00,54.0,54.0,29.75,WSW,246,4.0,13.0,100,0.00,,,0.00,0,Wunderground v.1.15,2013-09-28 19:11:00,
2013-09-28 14:14:00,54.1,54.1,29.74,WSW,250,3.0,13.0,100,0.00,,,0.00,0,Wunderground v.1.15,2013-09-28 19:14:00,
2013-09-28 14:15:00,54.1,54.1,29.75,WSW,252,2.0,13.0,100,0.00,,,0.00,0,Wunderground v.1.15,2013-09-28 19:15:00,
2013-09-28 14:16:00,54.2,54.2,29.75,WSW,252,3.0,13.0,100,0.00,,,0.00,0,Wunderground v.1.15,2013-09-28 19:16:00,
2013-09-28 14:19:00,54.1,54.1,29.75,WSW,244,3.0,13.0,100,0.00,,,0.00,0,Wunderground v.1.15,2013-09-28 19:19:00,
2013-09-28 14:20:00,54.2,54.2,29.75,WSW,240,2.0,13.0,100,0.00,,,0.00,0,Wunderground v.1.15,2013-09-28 19:20:00,
2013-09-28 14:22:00,54.4,54.4,29.75,WSW,253,2.0,13.0,100,0.00,,,0.00,0,Wunderground v.1.15,2013-09-28 19:22:00,
2013-09-28 14:24:00,54.6,54.6,29.76,WSW,246,4.0,13.0,100,0.00,,,0.00,0,Wunderground v.1.15,2013-09-28 19:24:00,
2013-09-28 14:30:00,54.6,54.6,29.75,WSW,241,1.0,13.0,100,0.00,,,0.00,0,Wunderground v.1.15,2013-09-28 19:30:00,
2013-09-28 14:31:00,54.6,54.6,29.75,WSW,245,4.0,13.0,100,0.00,,,0.00,0,Wunderground v.1.15,2013-09-28 19:31:00,
2013-09-28 14:32:00,54.6,54.6,29.75,WSW,248,3.0,13.0,100,0.00,,,0.00,0,Wunderground v.1.15,2013-09-28 19:32:00,
2013-09-28 14:35:00,54.7,54.7,29.75,WSW,239,4.0,13.0,100,0.00,,,0.00,0,Wunderground v.1.15,2013-09-28 19:35:00,
2013-09-28 14:37:00,54.9,54.9,29.75,WSW,248,6.0,13.0,100,0.00,,,0.00,0,Wunderground v.1.15,2013-09-28 19:37:00,
2013-09-28 14:42:00,54.9,54.9,29.75,WSW,247,3.0,13.0,100,0.00,,,0.00,0,Wunderground v.1.15,2013-09-28 19:42:00,
2013-09-28 14:43:00,54.9,54.9,29.75,WSW,246,6.0,13.0,100,0.00,,,0.00,0,Wunderground v.1.15,2013-09-28 19:43:00,
2013-09-28 14:45:00,54.9,54.9,29.75,WSW,245,4.0,13.0,100,0.00,,,0.00,0,Wunderground v.1.15,2013-09-28 19:45:00,
2013-09-28 14:46:00,55.0,55.0,29.75,WSW,251,2.0,13.0,100,0.00,,,0.00,0,Wunderground v.1.15,2013-09-28 19:46:00,
2013-09-28 14:47:00,55.0,55.0,29.76,WSW,249,7.0,13.0,100,0.00,,,0.00,0,Wunderground v.1.15,2013-09-28 19:47:00,
2013-09-28 14:49:00,55.1,55.1,29.77,WSW,245,3.0,13.0,100,0.00,,,0.00,0,Wunderground v.1.15,2013-09-28 19:49:00,
2013-09-28 14:51:00,55.4,55.4,29.76,WSW,255,3.0,13.0,100,0.00,,,0.00,0,Wunderground v.1.15,2013-09-28 19:51:00,
2013-09-28 14:55:00,55.8,55.8,29.76,WSW,239,3.0,13.0,100,0.00,,,0.00,0,Wunderground v.1.15,2013-09-28 19:55:00,
2013-09-28 14:56:00,55.9,55.9,29.76,WSW,253,7.0,13.0,100,0.00,,,0.00,0,Wunderground v.1.15,2013-09-28 19:56:00,
2013-09-28 14:58:00,56.0,56.0,29.76,WSW,257,5.0,13.0,100,0.00,,,0.00,0,Wunderground v.1.15,2013-09-28 19:58:00,
2013-09-28 15:02:00,56.1,55.3,29.76,WSW,248,4.0,13.0,97,0.00,,,0.00,0,Wunderground v.1.15,2013-09-28 20:02:00,
2013-09-28 15:06:00,56.4,55.0,29.77,WSW,250,4.0,13.0,95,0.00,,,0.00,0,Wunderground v.1.15,2013-09-28 20:06:00,
2013-09-28 15:08:00,56.4,54.7,29.76,WSW,247,6.0,13.0,94,0.00,,,0.00,0,Wunderground v.1.15,2013-09-28 20:08:00,
2013-09-28 15:12:00,56.5,53.6,29.76,WSW,256,5.0,13.0,90,0.00,,,0.00,0,Wunderground v.1.15,2013-09-28 20:12:00,
2013-09-28 15:13:00,56.4,52.9,29.77,WSW,251,6.0,13.0,88,0.00,,,0.00,0,Wunderground v.1.15,2013-09-28 20:13:00,
2013-09-28 15:14:00,56.4,52.6,29.77,SW,234,7.0,13.0,87,0.00,,,0.00,0,Wunderground v.1.15,2013-09-28 20:14:00,
2013-09-28 15:16:00,56.3,51.5,29.78,West,263,6.0,13.0,84,0.00,,,0.00,0,Wunderground v.1.15,2013-09-28 20:16:00,
2013-09-28 15:18:00,56.3,51.2,29.77,WSW,245,5.0,13.0,83,0.00,,,0.00,0,Wunderground v.1.15,2013-09-28 20:18:00,
2013-09-28 15:21:00,56.2,50.4,29.78,West,264,9.0,13.0,81,0.00,,,0.00,0,Wunderground v.1.15,2013-09-28 20:21:00,
2013-09-28 15:22:00,56.2,50.1,29.77,WSW,246,3.0,13.0,80,0.00,,,0.00,0,Wunderground v.1.15,2013-09-28 20:22:00,
2013-09-28 15:24:00,56.3,49.9,29.77,WSW,244,3.0,13.0,79,0.00,,,0.00,0,Wunderground v.1.15,2013-09-28 20:24:00,
2013-09-28 15:25:00,56.3,49.9,29.77,WSW,251,3.0,13.0,79,0.00,,,0.00,0,Wunderground v.1.15,2013-09-28 20:25:00,
2013-09-28 15:28:00,56.3,49.9,29.77,WSW,249,4.0,13.0,79,0.00,,,0.00,0,Wunderground v.1.15,2013-09-28 20:28:00,
2013-09-28 15:29:00,56.4,50.0,29.78,WSW,253,5.0,13.0,79,0.00,,,0.00,0,Wunderground v.1.15,2013-09-28 20:29:00,
2013-09-28 15:32:00,56.4,50.3,29.78,WSW,247,2.0,13.0,80,0.00,,,0.00,0,Wunderground v.1.15,2013-09-28 20:32:00,
2013-09-28 15:33:00,56.4,50.3,29.77,WSW,253,4.0,13.0,80,0.00,,,0.00,0,Wunderground v.1.15,2013-09-28 20:33:00,
2013-09-28 15:34:00,56.4,50.3,29.78,WSW,246,5.0,13.0,80,0.00,,,0.00,0,Wunderground v.1.15,2013-09-28 20:34:00,
2013-09-28 15:37:00,56.5,50.1,29.78,WSW,252,3.0,13.0,79,0.00,,,0.00,0,Wunderground v.1.15,2013-09-28 20:37:00,
2013-09-28 15:39:00,56.6,50.5,29.78,WSW,250,3.0,13.0,80,0.00,,,0.00,0,Wunderground v.1.15,2013-09-28 20:39:00,
2013-09-28 15:40:00,56.6,50.5,29.78,WSW,249,3.0,13.0,80,0.00,,,0.00,0,Wunderground v.1.15,2013-09-28 20:40:00,
2013-09-28 15:42:00,56.6,50.2,29.78,WSW,246,3.0,13.0,79,0.00,,,0.00,0,Wunderground v.1.15,2013-09-28 20:42:00,
2013-09-28 15:43:00,56.6,50.2,29.78,West,264,6.0,13.0,79,0.00,,,0.00,0,Wunderground v.1.15,2013-09-28 20:43:00,
2013-09-28 15:46:00,56.7,49.6,29.78,WSW,252,6.0,13.0,77,0.00,,,0.00,0,Wunderground v.1.15,2013-09-28 20:46:00,
2013-09-28 15:49:00,56.7,49.2,29.78,WSW,241,7.0,13.0,76,0.00,,,0.00,0,Wunderground v.1.15,2013-09-28 20:49:00,
2013-09-28 15:52:00,56.6,48.4,29.78,WSW,245,5.0,13.0,74,0.00,,,0.00,0,Wunderground v.1.15,2013-09-28 20:52:00,
2013-09-28 15:53:00,56.6,48.4,29.79,WSW,247,3.0,13.0,74,0.00,,,0.00,0,Wunderground v.1.15,2013-09-28 20:53:00,
2013-09-28 15:56:00,56.6,48.0,29.78,WSW,253,4.0,13.0,73,0.00,,,0.00,0,Wunderground v.1.15,2013-09-28 20:56:00,
2013-09-28 15:58:00,56.6,48.0,29.78,WSW,256,2.0,13.0,73,0.00,,,0.00,0,Wunderground v.1.15,2013-09-28 20:58:00,
2013-09-28 15:59:00,56.6,48.0,29.79,WSW,251,4.0,13.0,73,0.00,,,0.00,0,Wunderground v.1.15,2013-09-28 20:59:00,
2013-09-28 16:01:00,56.8,48.2,29.79,West,260,4.0,13.0,73,0.00,,,0.00,0,Wunderground v.1.15,2013-09-28 21:01:00,
2013-09-28 16:04:00,56.9,48.3,29.79,WSW,248,3.0,13.0,73,0.00,,,0.00,0,Wunderground v.1.15,2013-09-28 21:04:00,
2013-09-28 16:05:00,57.0,48.4,29.79,WSW,245,4.0,13.0,73,0.00,,,0.00,0,Wunderground v.1.15,2013-09-28 21:05:00,
2013-09-28 16:07:00,57.0,48.1,29.79,WSW,243,5.0,13.0,72,0.00,,,0.00,0,Wunderground v.1.15,2013-09-28 21:07:00,
2013-09-28 16:10:00,56.9,47.2,29.80,WSW,240,5.0,13.0,70,0.00,,,0.00,0,Wunderground v.1.15,2013-09-28 21:10:00,
2013-09-28 16:11:00,56.8,47.1,29.79,SW,234,3.0,13.0,70,0.00,,,0.00,0,Wunderground v.1.15,2013-09-28 21:11:00,
2013-09-28 16:12:00,56.8,47.1,29.79,SW,235,6.0,13.0,70,0.00,,,0.00,0,Wunderground v.1.15,2013-09-28 21:12:00,
2013-09-28 16:17:00,56.6,45.4,29.79,WSW,244,8.0,13.0,66,0.00,,,0.00,0,Wunderground v.1.15,2013-09-28 21:17:00,
2013-09-28 16:19:00,56.6,45.4,29.79,SW,224,3.0,13.0,66,0.00,,,0.00,0,Wunderground v.1.15,2013-09-28 21:19:00,
2013-09-28 16:23:00,56.7,45.9,29.80,WSW,240,5.0,13.0,67,0.00,,,0.00,0,Wunderground v.1.15,2013-09-28 21:23:00,
2013-09-28 16:27:00,56.7,45.5,29.80,WSW,256,6.0,13.0,66,0.00,,,0.00,0,Wunderground v.1.15,2013-09-28 21:27:00,
2013-09-28 16:32:00,56.6,45.4,29.80,WSW,248,9.0,13.0,66,0.00,,,0.00,0,Wunderground v.1.15,2013-09-28 21:32:00,
2013-09-28 16:33:00,56.6,45.4,29.80,WSW,256,6.0,13.0,66,0.00,,,0.00,0,Wunderground v.1.15,2013-09-28 21:33:00,
2013-09-28 16:35:00,56.6,45.4,29.80,WSW,257,5.0,13.0,66,0.00,,,0.00,0,Wunderground v.1.15,2013-09-28 21:35:00,
2013-09-28 16:37:00,56.6,45.8,29.80,WSW,258,2.0,13.0,67,0.00,,,0.00,0,Wunderground v.1.15,2013-09-28 21:37:00,
2013-09-28 16:39:00,56.6,45.8,29.80,WSW,243,5.0,13.0,67,0.00,,,0.00,0,Wunderground v.1.15,2013-09-28 21:39:00,
2013-09-28 16:41:00,56.6,46.2,29.80,WSW,246,4.0,13.0,68,0.00,,,0.00,0,Wunderground v.1.15,2013-09-28 21:41:00,
2013-09-28 16:44:00,56.6,46.2,29.81,WSW,248,4.0,13.0,68,0.00,,,0.00,0,Wunderground v.1.15,2013-09-28 21:44:00,
2013-09-28 16:47:00,56.6,45.8,29.81,WSW,250,6.0,13.0,67,0.00,,,0.00,0,Wunderground v.1.15,2013-09-28 21:47:00,
2013-09-28 16:48:00,56.6,45.8,29.80,WSW,239,5.0,13.0,67,0.00,,,0.00,0,Wunderground v.1.15,2013-09-28 21:48:00,
2013-09-28 16:49:00,56.6,45.8,29.81,WSW,247,3.0,13.0,67,0.00,,,0.00,0,Wunderground v.1.15,2013-09-28 21:49:00,
2013-09-28 16:52:00,56.6,45.8,29.80,WSW,245,4.0,13.0,67,0.00,,,0.00,0,Wunderground v.1.15,2013-09-28 21:52:00,
2013-09-28 16:55:00,56.6,45.4,29.80,WSW,246,2.0,13.0,66,0.00,,,0.00,0,Wunderground v.1.15,2013-09-28 21:55:00,
2013-09-28 16:56:00,56.7,45.5,29.80,WSW,248,4.0,13.0,66,0.00,,,0.00,0,Wunderground v.1.15,2013-09-28 21:56:00,
2013-09-28 16:57:00,56.7,45.5,29.81,WSW,249,2.0,13.0,66,0.00,,,0.00,0,Wunderground v.1.15,2013-09-28 21:57:00,
2013-09-28 16:59:00,56.7,45.9,29.80,WSW,246,4.0,13.0,67,0.00,,,0.00,0,Wunderground v.1.15,2013-09-28 21:59:00,
2013-09-28 17:01:00,56.8,46.0,29.80,SW,217,4.0,13.0,67,0.00,,,0.00,0,Wunderground v.1.15,2013-09-28 22:01:00,
2013-09-28 17:03:00,56.8,46.0,29.81,WSW,253,3.0,13.0,67,0.00,,,0.00,0,Wunderground v.1.15,2013-09-28 22:03:00,
2013-09-28 17:04:00,56.8,46.0,29.81,WSW,255,2.0,13.0,67,0.00,,,0.00,0,Wunderground v.1.15,2013-09-28 22:04:00,
2013-09-28 17:05:00,56.8,45.6,29.81,WSW,248,3.0,13.0,66,0.00,,,0.00,0,Wunderground v.1.15,2013-09-28 22:05:00,
2013-09-28 17:09:00,56.8,45.6,29.81,WSW,249,3.0,13.0,66,0.00,,,0.00,0,Wunderground v.1.15,2013-09-28 22:09:00,
2013-09-28 17:11:00,56.8,44.7,29.81,WSW,248,3.0,13.0,64,0.00,,,0.00,0,Wunderground v.1.15,2013-09-28 22:11:00,
2013-09-28 17:16:00,56.7,45.5,29.82,WSW,244,3.0,13.0,66,0.00,,,0.00,0,Wunderground v.1.15,2013-09-28 22:16:00,
2013-09-28 17:17:00,56.7,45.5,29.81,WSW,250,3.0,13.0,66,0.00,,,0.00,0,Wunderground v.1.15,2013-09-28 22:17:00,
2013-09-28 17:18:00,56.7,45.1,29.82,WSW,248,3.0,13.0,65,0.00,,,0.00,0,Wunderground v.1.15,2013-09-28 22:18:00,
2013-09-28 17:19:00,56.7,45.1,29.82,WSW,249,4.0,13.0,65,0.00,,,0.00,0,Wunderground v.1.15,2013-09-28 22:19:00,
2013-09-28 17:23:00,56.7,45.1,29.82,WSW,246,3.0,13.0,65,0.00,,,0.00,0,Wunderground v.1.15,2013-09-28 22:23:00,
2013-09-28 17:24:00,56.7,45.1,29.82,WSW,243,4.0,13.0,65,0.00,,,0.00,0,Wunderground v.1.15,2013-09-28 22:24:00,
2013-09-28 17:25:00,56.7,44.7,29.82,WSW,248,5.0,13.0,64,0.00,,,0.00,0,Wunderground v.1.15,2013-09-28 22:25:00,
2013-09-28 17:28:00,56.7,45.1,29.81,WSW,246,3.0,13.0,65,0.00,,,0.00,0,Wunderground v.1.15,2013-09-28 22:28:00,
2013-09-28 17:29:00,56.7,44.7,29.82,WSW,244,2.0,13.0,64,0.00,,,0.00,0,Wunderground v.1.15,2013-09-28 22:29:00,
2013-09-28 17:33:00,56.7,44.7,29.82,WSW,253,6.0,13.0,64,0.00,,,0.00,0,Wunderground v.1.15,2013-09-28 22:33:00,
2013-09-28 17:35:00,56.6,44.6,29.82,WSW,245,2.0,13.0,64,0.00,,,0.00,0,Wunderground v.1.15,2013-09-28 22:35:00,
2013-09-28 17:36:00,56.6,44.6,29.82,WSW,246,3.0,13.0,64,0.00,,,0.00,0,Wunderground v.1.15,2013-09-28 22:36:00,
2013-09-28 17:40:00,56.6,44.6,29.83,WSW,250,6.0,13.0,64,0.00,,,0.00,0,Wunderground v.1.15,2013-09-28 22:40:00,
2013-09-28 17:41:00,56.6,44.1,29.83,WSW,247,4.0,13.0,63,0.00,,,0.00,0,Wunderground v.1.15,2013-09-28 22:41:00,
2013-09-28 17:43:00,56.6,43.7,29.82,WSW,243,3.0,13.0,62,0.00,,,0.00,0,Wunderground v.1.15,2013-09-28 22:43:00,
2013-09-28 17:46:00,56.7,42.5,29.83,WSW,238,4.0,13.0,59,0.00,,,0.00,0,Wunderground v.1.15,2013-09-28 22:46:00,
2013-09-28 17:50:00,56.7,41.6,29.82,WSW,242,3.0,13.0,57,0.00,,,0.00,0,Wunderground v.1.15,2013-09-28 22:50:00,
2013-09-28 17:52:00,56.6,41.1,29.82,WSW,248,3.0,13.0,56,0.00,,,0.00,0,Wunderground v.1.15,2013-09-28 22:52:00,
2013-09-28 17:53:00,56.7,41.6,29.83,WSW,246,4.0,13.0,57,0.00,,,0.00,0,Wunderground v.1.15,2013-09-28 22:53:00,
2013-09-28 17:55:00,56.6,41.1,29.83,WSW,243,2.0,13.0,56,0.00,,,0.00,0,Wunderground v.1.15,2013-09-28 22:55:00,
2013-09-28 17:57:00,56.6,41.1,29.83,WSW,251,3.0,13.0,56,0.00,,,0.00,0,Wunderground v.1.15,2013-09-28 22:57:00,
2013-09-28 17:58:00,56.6,41.1,29.83,WSW,247,3.0,13.0,56,0.00,,,0.00,0,Wunderground v.1.15,2013-09-28 22:58:00,
2013-09-28 18:00:00,56.6,41.1,29.83,WSW,247,2.0,13.0,56,0.00,,,0.00,0,Wunderground v.1.15,2013-09-28 23:00:00,
2013-09-28 18:04:00,56.5,40.5,29.83,WSW,240,2.0,13.0,55,0.00,,,0.00,0,Wunderground v.1.15,2013-09-28 23:04:00,
2013-09-28 18:08:00,56.5,40.5,29.83,WSW,242,4.0,13.0,55,0.00,,,0.00,0,Wunderground v.1.15,2013-09-28 23:08:00,
2013-09-28 18:09:00,56.6,40.6,29.83,WSW,250,1.0,13.0,55,0.00,,,0.00,0,Wunderground v.1.15,2013-09-28 23:09:00,
2013-09-28 18:10:00,56.6,41.1,29.83,WSW,248,2.0,13.0,56,0.00,,,0.00,0,Wunderground v.1.15,2013-09-28 23:10:00,
2013-09-28 18:11:00,56.6,40.6,29.83,WSW,246,4.0,13.0,55,0.00,,,0.00,0,Wunderground v.1.15,2013-09-28 23:11:00,
2013-09-28 18:16:00,56.8,40.8,29.83,WSW,246,3.0,13.0,55,0.00,,,0.00,0,Wunderground v.1.15,2013-09-28 23:16:00,
2013-09-28 18:18:00,56.8,40.3,29.83,WSW,245,3.0,13.0,54,0.00,,,0.00,0,Wunderground v.1.15,2013-09-28 23:18:00,
2013-09-28 18:19:00,56.8,40.3,29.83,WSW,254,3.0,13.0,54,0.00,,,0.00,0,Wunderground v.1.15,2013-09-28 23:19:00,
2013-09-28 18:20:00,56.8,40.3,29.83,WSW,243,7.0,13.0,54,0.00,,,0.00,0,Wunderground v.1.15,2013-09-28 23:20:00,
2013-09-28 18:23:00,56.6,39.7,29.83,WSW,251,5.0,13.0,53,0.00,,,0.00,0,Wunderground v.1.15,2013-09-28 23:23:00,
2013-09-28 18:24:00,56.6,39.2,29.83,WSW,250,3.0,13.0,52,0.00,,,0.00,0,Wunderground v.1.15,2013-09-28 23:24:00,
2013-09-28 18:26:00,56.5,39.6,29.84,WSW,248,3.0,13.0,53,0.00,,,0.00,0,Wunderground v.1.15,2013-09-28 23:26:00,
2013-09-28 18:28:00,56.4,39.5,29.83,West,269,6.0,13.0,53,0.00,,,0.00,0,Wunderground v.1.15,2013-09-28 23:28:00,
2013-09-28 18:29:00,56.3,38.9,29.83,WSW,239,6.0,13.0,52,0.00,,,0.00,0,Wunderground v.1.15,2013-09-28 23:29:00,
2013-09-28 18:33:00,56.3,38.4,29.84,WSW,252,2.0,13.0,51,0.00,,,0.00,0,Wunderground v.1.15,2013-09-28 23:33:00,
2013-09-28 18:35:00,56.3,38.9,29.84,WSW,249,4.0,13.0,52,0.00,,,0.00,0,Wunderground v.1.15,2013-09-28 23:35:00,
2013-09-28 18:36:00,56.3,38.9,29.84,WSW,248,3.0,13.0,52,0.00,,,0.00,0,Wunderground v.1.15,2013-09-28 23:36:00,
2013-09-28 18:40:00,56.2,38.8,29.84,WSW,247,3.0,13.0,52,0.00,,,0.00,0,Wunderground v.1.15,2013-09-28 23:40:00,
2013-09-28 18:43:00,56.2,38.8,29.84,WSW,249,2.0,13.0,52,0.00,,,0.00,0,Wunderground v.1.15,2013-09-28 23:43:00,
2013-09-28 18:44:00,56.1,39.2,29.85,WSW,249,2.0,13.0,53,0.00,,,0.00,0,Wunderground v.1.15,2013-09-28 23:44:00,
2013-09-28 18:47:00,56.0,39.1,29.84,WSW,249,3.0,13.0,53,0.00,,,0.00,0,Wunderground v.1.15,2013-09-28 23:47:00,
2013-09-28 18:49:00,55.8,39.4,29.85,WSW,249,3.0,13.0,54,0.00,,,0.00,0,Wunderground v.1.15,2013-09-28 23:49:00,
2013-09-28 18:50:00,55.7,39.3,29.85,WSW,249,3.0,13.0,54,0.00,,,0.00,0,Wunderground v.1.15,2013-09-28 23:50:00,
2013-09-28 18:52:00,55.6,39.2,29.85,WSW,249,1.0,13.0,54,0.00,,,0.00,0,Wunderground v.1.15,2013-09-28 23:52:00,
2013-09-28 18:54:00,55.5,39.1,29.85,WSW,249,2.0,13.0,54,0.00,,,0.00,0,Wunderground v.1.15,2013-09-28 23:54:00,
2013-09-28 18:56:00,55.3,39.4,29.85,WSW,249,1.0,13.0,55,0.00,,,0.00,0,Wunderground v.1.15,2013-09-28 23:56:00,
2013-09-28 18:59:00,55.1,39.2,29.84,WSW,249,2.0,13.0,55,0.00,,,0.00,0,Wunderground v.1.15,2013-09-28 23:59:00,
2013-09-28 19:00:00,55.1,39.2,29.85,WSW,249,1.0,13.0,55,0.00,,,0.00,0,Wunderground v.1.15,2013-09-29 00:00:00,
2013-09-28 19:05:00,54.6,39.2,29.85,WSW,249,1.0,13.0,56,0.00,,,0.00,0,Wunderground v.1.15,2013-09-29 00:05:00,
2013-09-28 19:07:00,54.5,39.6,29.85,WSW,249,0.0,13.0,57,0.00,,,0.00,0,Wunderground v.1.15,2013-09-29 00:07:00,
2013-09-28 19:09:00,54.3,39.8,29.86,WSW,249,1.0,13.0,58,0.00,,,0.00,0,Wunderground v.1.15,2013-09-29 00:09:00,
2013-09-28 19:10:00,54.3,39.8,29.85,WSW,249,2.0,13.0,58,0.00,,,0.00,0,Wunderground v.1.15,2013-09-29 00:10:00,
2013-09-28 19:12:00,54.1,39.6,29.85,WSW,249,2.0,13.0,58,0.00,,,0.00,0,Wunderground v.1.15,2013-09-29 00:12:00,
2013-09-28 19:15:00,54.0,40.0,29.86,WSW,249,1.0,13.0,59,0.00,,,0.00,0,Wunderground v.1.15,2013-09-29 00:15:00,
2013-09-28 19:16:00,54.0,40.0,29.86,WSW,249,1.0,13.0,59,0.00,,,0.00,0,Wunderground v.1.15,2013-09-29 00:16:00,
2013-09-28 19:17:00,54.0,40.0,29.86,WSW,249,2.0,13.0,59,0.00,,,0.00,0,Wunderground v.1.15,2013-09-29 00:17:00,
2013-09-28 19:21:00,53.8,39.8,29.86,WSW,249,2.0,13.0,59,0.00,,,0.00,0,Wunderground v.1.15,2013-09-29 00:21:00,
2013-09-28 19:22:00,53.7,39.7,29.86,WSW,249,1.0,13.0,59,0.00,,,0.00,0,Wunderground v.1.15,2013-09-29 00:22:00,
2013-09-28 19:26:00,53.5,39.5,29.86,WSW,249,1.0,13.0,59,0.00,,,0.00,0,Wunderground v.1.15,2013-09-29 00:26:00,
2013-09-28 19:27:00,53.4,39.9,29.87,WSW,249,2.0,13.0,60,0.00,,,0.00,0,Wunderground v.1.15,2013-09-29 00:27:00,
2013-09-28 19:29:00,53.3,39.8,29.87,WSW,249,1.0,13.0,60,0.00,,,0.00,0,Wunderground v.1.15,2013-09-29 00:29:00,
2013-09-28 19:30:00,53.2,39.7,29.86,WSW,249,1.0,13.0,60,0.00,,,0.00,0,Wunderground v.1.15,2013-09-29 00:30:00,
2013-09-28 19:34:00,52.9,40.2,29.86,WSW,249,2.0,13.0,62,0.00,,,0.00,0,Wunderground v.1.15,2013-09-29 00:34:00,
2013-09-28 19:35:00,52.8,40.5,29.86,WSW,249,1.0,13.0,63,0.00,,,0.00,0,Wunderground v.1.15,2013-09-29 00:35:00,
2013-09-28 19:38:00,52.6,40.8,29.86,WSW,249,2.0,13.0,64,0.00,,,0.00,0,Wunderground v.1.15,2013-09-29 00:38:00,
2013-09-28 19:40:00,52.4,41.0,29.87,WSW,249,0.0,13.0,65,0.00,,,0.00,0,Wunderground v.1.15,2013-09-29 00:40:00,
2013-09-28 19:42:00,52.3,41.3,29.87,WSW,249,1.0,13.0,66,0.00,,,0.00,0,Wunderground v.1.15,2013-09-29 00:42:00,
2013-09-28 19:44:00,52.2,41.6,29.87,WSW,249,1.0,13.0,67,0.00,,,0.00,0,Wunderground v.1.15,2013-09-29 00:44:00,
2013-09-28 19:45:00,52.2,41.6,29.87,WSW,249,1.0,13.0,67,0.00,,,0.00,0,Wunderground v.1.15,2013-09-29 00:45:00,
2013-09-28 19:48:00,52.1,41.9,29.87,WSW,249,1.0,13.0,68,0.00,,,0.00,0,Wunderground v.1.15,2013-09-29 00:48:00,
2013-09-28 19:51:00,52.0,42.5,29.87,WSW,249,1.0,13.0,70,0.00,,,0.00,0,Wunderground v.1.15,2013-09-29 00:51:00,
2013-09-28 19:53:00,51.9,42.8,29.88,WSW,249,1.0,13.0,71,0.00,,,0.00,0,Wunderground v.1.15,2013-09-29 00:53:00,
2013-09-28 19:54:00,51.8,43.1,29.88,WSW,249,1.0,13.0,72,0.00,,,0.00,0,Wunderground v.1.15,2013-09-29 00:54:00,
2013-09-28 19:56:00,51.7,43.3,29.88,WSW,249,1.0,13.0,73,0.00,,,0.00,0,Wunderground v.1.15,2013-09-29 00:56:00,
2013-09-28 19:58:00,51.6,43.9,29.87,WSW,249,1.0,13.0,75,0.00,,,0.00,0,Wunderground v.1.15,2013-09-29 00:58:00,
2013-09-28 20:01:00,51.4,44.4,29.88,WSW,249,1.0,13.0,77,0.00,,,0.00,0,Wunderground v.1.15,2013-09-29 01:01:00,
2013-09-28 20:03:00,51.4,44.8,29.88,WSW,249,1.0,13.0,78,0.00,,,0.00,0,Wunderground v.1.15,2013-09-29 01:03:00,
2013-09-28 20:06:00,51.2,44.9,29.88,WSW,249,0.0,13.0,79,0.00,,,0.00,0,Wunderground v.1.15,2013-09-29 01:06:00,
2013-09-28 20:08:00,51.2,44.9,29.88,WSW,249,0.0,13.0,79,0.00,,,0.00,0,Wunderground v.1.15,2013-09-29 01:08:00,
2013-09-28 20:11:00,51.1,45.1,29.88,WSW,249,0.0,13.0,80,0.00,,,0.00,0,Wunderground v.1.15,2013-09-29 01:11:00,
2013-09-28 20:13:00,51.0,45.0,29.88,WSW,249,0.0,13.0,80,0.00,,,0.00,0,Wunderground v.1.15,2013-09-29 01:13:00,
2013-09-28 20:17:00,50.9,44.9,29.88,WSW,249,0.0,13.0,80,0.00,,,0.00,0,Wunderground v.1.15,2013-09-29 01:17:00,
2013-09-28 20:18:00,50.9,44.9,29.88,WSW,249,1.0,13.0,80,0.00,,,0.00,0,Wunderground v.1.15,2013-09-29 01:18:00,
2013-09-28 20:20:00,50.8,45.2,29.89,WSW,249,0.0,13.0,81,0.00,,,0.00,0,Wunderground v.1.15,2013-09-29 01:20:00,
2013-09-28 20:23:00,50.7,45.1,29.88,WSW,249,0.0,13.0,81,0.00,,,0.00,0,Wunderground v.1.15,2013-09-29 01:23:00,
2013-09-28 20:25:00,50.7,45.1,29.88,WSW,249,0.0,13.0,81,0.00,,,0.00,0,Wunderground v.1.15,2013-09-29 01:25:00,
2013-09-28 20:26:00,50.7,45.1,29.89,WSW,249,0.0,13.0,81,0.00,,,0.00,0,Wunderground v.1.15,2013-09-29 01:26:00,
2013-09-28 20:28:00,50.6,45.0,29.88,WSW,249,0.0,13.0,81,0.00,,,0.00,0,Wunderground v.1.15,2013-09-29 01:28:00,
2013-09-28 20:32:00,50.5,44.9,29.88,WSW,249,0.0,13.0,81,0.00,,,0.00,0,Wunderground v.1.15,2013-09-29 01:32:00,
2013-09-28 20:33:00,50.5,44.9,29.89,WSW,249,0.0,13.0,81,0.00,,,0.00,0,Wunderground v.1.15,2013-09-29 01:33:00,
2013-09-28 20:37:00,50.2,44.6,29.88,WSW,249,0.0,13.0,81,0.00,,,0.00,0,Wunderground v.1.15,2013-09-29 01:37:00,
2013-09-28 20:38:00,50.1,44.8,29.89,WSW,249,0.0,13.0,82,0.00,,,0.00,0,Wunderground v.1.15,2013-09-29 01:38:00,
2013-09-28 20:40:00,50.0,44.7,29.88,WSW,249,0.0,13.0,82,0.00,,,0.00,0,Wunderground v.1.15,2013-09-29 01:40:00,
2013-09-28 20:43:00,49.6,44.3,29.89,WSW,249,0.0,13.0,82,0.00,,,0.00,0,Wunderground v.1.15,2013-09-29 01:43:00,
2013-09-28 20:44:00,49.6,44.3,29.89,WSW,249,0.0,13.0,82,0.00,,,0.00,0,Wunderground v.1.15,2013-09-29 01:44:00,
2013-09-28 20:50:00,49.2,44.6,29.89,WSW,249,0.0,13.0,84,0.00,,,0.00,0,Wunderground v.1.15,2013-09-29 01:50:00,
2013-09-28 20:52:00,49.1,44.8,29.89,WSW,249,0.0,13.0,85,0.00,,,0.00,0,Wunderground v.1.15,2013-09-29 01:52:00,
2013-09-28 20:57:00,48.8,44.5,29.89,WSW,249,0.0,13.0,85,0.00,,,0.00,0,Wunderground v.1.15,2013-09-29 01:57:00,
2013-09-28 21:02:00,48.5,44.5,29.90,WSW,249,0.0,13.0,86,0.00,,,0.00,0,Wunderground v.1.15,2013-09-29 02:02:00,
2013-09-28 21:03:00,48.3,44.3,29.89,WSW,249,0.0,13.0,86,0.00,,,0.00,0,Wunderground v.1.15,2013-09-29 02:03:00,
2013-09-28 21:07:00,48.1,44.4,29.89,WSW,249,0.0,13.0,87,0.00,,,0.00,0,Wunderground v.1.15,2013-09-29 02:07:00,
2013-09-28 21:08:00,48.0,44.3,29.89,WSW,249,0.0,13.0,87,0.00,,,0.00,0,Wunderground v.1.15,2013-09-29 02:08:00,
2013-09-28 21:11:00,47.9,44.5,29.89,WSW,249,0.0,13.0,88,0.00,,,0.00,0,Wunderground v.1.15,2013-09-29 02:11:00,
2013-09-28 21:13:00,47.7,44.3,29.89,WSW,249,0.0,13.0,88,0.00,,,0.00,0,Wunderground v.1.15,2013-09-29 02:13:00,
2013-09-28 21:15:00,47.6,44.5,29.90,WSW,249,0.0,13.0,89,0.00,,,0.00,0,Wunderground v.1.15,2013-09-29 02:15:00,
2013-09-28 21:16:00,47.6,44.5,29.89,WSW,249,0.0,13.0,89,0.00,,,0.00,0,Wunderground v.1.15,2013-09-29 02:16:00,
2013-09-28 21:18:00,47.5,44.4,29.89,WSW,249,0.0,13.0,89,0.00,,,0.00,0,Wunderground v.1.15,2013-09-29 02:18:00,
2013-09-28 21:21:00,47.3,44.5,29.89,WSW,249,0.0,13.0,90,0.00,,,0.00,0,Wunderground v.1.15,2013-09-29 02:21:00,
2013-09-28 21:22:00,47.2,44.4,29.90,WSW,249,0.0,13.0,90,0.00,,,0.00,0,Wunderground v.1.15,2013-09-29 02:22:00,
2013-09-28 21:25:00,47.1,44.6,29.90,WSW,249,0.0,13.0,91,0.00,,,0.00,0,Wunderground v.1.15,2013-09-29 02:25:00,
2013-09-28 21:27:00,46.9,44.4,29.90,WSW,249,0.0,13.0,91,0.00,,,0.00,0,Wunderground v.1.15,2013-09-29 02:27:00,
2013-09-28 21:28:00,46.8,44.3,29.90,WSW,249,0.0,13.0,91,0.00,,,0.00,0,Wunderground v.1.15,2013-09-29 02:28:00,
2013-09-28 21:33:00,46.6,44.1,29.90,WSW,249,0.0,13.0,91,0.00,,,0.00,0,Wunderground v.1.15,2013-09-29 02:33:00,
2013-09-28 21:38:00,46.3,44.4,29.90,WSW,249,0.0,13.0,93,0.00,,,0.00,0,Wunderground v.1.15,2013-09-29 02:38:00,
2013-09-28 21:40:00,46.3,44.7,29.90,WSW,249,0.0,13.0,94,0.00,,,0.00,0,Wunderground v.1.15,2013-09-29 02:40:00,
2013-09-28 21:45:00,46.2,44.8,29.90,WSW,249,0.0,13.0,95,0.00,,,0.00,0,Wunderground v.1.15,2013-09-29 02:45:00,
2013-09-28 21:46:00,46.2,44.8,29.90,WSW,249,0.0,13.0,95,0.00,,,0.00,0,Wunderground v.1.15,2013-09-29 02:46:00,
2013-09-28 21:47:00,46.2,44.8,29.90,WSW,249,0.0,13.0,95,0.00,,,0.00,0,Wunderground v.1.15,2013-09-29 02:47:00,
2013-09-28 21:52:00,46.3,45.2,29.89,WSW,249,0.0,13.0,96,0.00,,,0.00,0,Wunderground v.1.15,2013-09-29 02:52:00,
2013-09-28 21:53:00,46.4,45.6,29.90,WSW,249,0.0,13.0,97,0.00,,,0.00,0,Wunderground v.1.15,2013-09-29 02:53:00,
2013-09-28 21:57:00,46.4,45.9,29.90,WSW,249,0.0,13.0,98,0.00,,,0.00,0,Wunderground v.1.15,2013-09-29 02:57:00,
2013-09-28 21:58:00,46.4,45.9,29.89,WSW,249,0.0,13.0,98,0.00,,,0.00,0,Wunderground v.1.15,2013-09-29 02:58:00,
2013-09-28 21:59:00,46.4,45.9,29.90,WSW,249,0.0,13.0,98,0.00,,,0.00,0,Wunderground v.1.15,2013-09-29 02:59:00,
2013-09-28 22:03:00,46.5,46.2,29.90,WSW,249,0.0,13.0,99,0.00,,,0.00,0,Wunderground v.1.15,2013-09-29 03:03:00,
2013-09-28 22:08:00,46.5,46.2,29.90,WSW,249,0.0,13.0,99,0.00,,,0.00,0,Wunderground v.1.15,2013-09-29 03:08:00,
2013-09-28 22:09:00,46.5,46.2,29.90,WSW,249,0.0,13.0,99,0.00,,,0.00,0,Wunderground v.1.15,2013-09-29 03:09:00,
2013-09-28 22:13:00,46.4,46.4,29.89,WSW,249,0.0,13.0,100,0.00,,,0.00,0,Wunderground v.1.15,2013-09-29 03:13:00,
2013-09-28 22:14:00,46.3,46.0,29.89,WSW,249,0.0,13.0,99,0.00,,,0.00,0,Wunderground v.1.15,2013-09-29 03:14:00,
2013-09-28 22:15:00,46.3,46.3,29.90,WSW,249,0.0,13.0,100,0.00,,,0.00,0,Wunderground v.1.15,2013-09-29 03:15:00,
2013-09-28 22:19:00,46.2,46.2,29.89,WSW,249,0.0,13.0,100,0.00,,,0.00,0,Wunderground v.1.15,2013-09-29 03:19:00,
2013-09-28 22:22:00,46.2,46.2,29.90,WSW,249,0.0,13.0,100,0.00,,,0.00,0,Wunderground v.1.15,2013-09-29 03:22:00,
2013-09-28 22:23:00,46.2,46.2,29.90,WSW,249,0.0,13.0,100,0.00,,,0.00,0,Wunderground v.1.15,2013-09-29 03:23:00,
2013-09-28 22:27:00,46.1,46.1,29.89,WSW,249,0.0,13.0,100,0.00,,,0.00,0,Wunderground v.1.15,2013-09-29 03:27:00,
2013-09-28 22:30:00,46.1,46.1,29.90,WSW,249,0.0,13.0,100,0.00,,,0.00,0,Wunderground v.1.15,2013-09-29 03:30:00,
2013-09-28 22:34:00,46.1,46.1,29.91,WSW,249,0.0,13.0,100,0.00,,,0.00,0,Wunderground v.1.15,2013-09-29 03:34:00,
2013-09-28 22:39:00,46.4,46.4,29.90,SW,224,0.0,13.0,100,0.00,,,0.00,0,Wunderground v.1.15,2013-09-29 03:39:00,
2013-09-28 22:41:00,46.5,46.5,29.90,SW,219,1.0,13.0,100,0.00,,,0.00,0,Wunderground v.1.15,2013-09-29 03:41:00,
2013-09-28 22:44:00,46.6,46.6,29.90,SW,219,0.0,13.0,100,0.00,,,0.00,0,Wunderground v.1.15,2013-09-29 03:44:00,
2013-09-28 22:49:00,46.7,46.7,29.90,SW,218,1.0,13.0,100,0.00,,,0.00,0,Wunderground v.1.15,2013-09-29 03:49:00,
2013-09-28 22:50:00,46.7,46.7,29.90,SW,218,1.0,13.0,100,0.00,,,0.00,0,Wunderground v.1.15,2013-09-29 03:50:00,
2013-09-28 22:55:00,46.8,46.8,29.90,SW,215,1.0,13.0,100,0.00,,,0.00,0,Wunderground v.1.15,2013-09-29 03:55:00,
2013-09-28 23:00:00,46.8,46.8,29.90,SW,214,1.0,13.0,100,0.00,,,0.00,0,Wunderground v.1.15,2013-09-29 04:00:00,
2013-09-28 23:01:00,46.8,46.8,29.90,SSW,213,3.0,13.0,100,0.00,,,0.00,0,Wunderground v.1.15,2013-09-29 04:01:00,
2013-09-28 23:02:00,46.8,46.8,29.90,SSW,213,1.0,13.0,100,0.00,,,0.00,0,Wunderground v.1.15,2013-09-29 04:02:00,
2013-09-28 23:03:00,46.8,46.8,29.90,SSW,213,0.0,13.0,100,0.00,,,0.00,0,Wunderground v.1.15,2013-09-29 04:03:00,
2013-09-28 23:05:00,46.8,46.8,29.90,SSW,213,1.0,13.0,100,0.00,,,0.00,0,Wunderground v.1.15,2013-09-29 04:05:00,
2013-09-28 23:06:00,46.8,46.8,29.90,SSW,203,1.0,13.0,100,0.00,,,0.00,0,Wunderground v.1.15,2013-09-29 04:06:00,
2013-09-28 23:11:00,46.8,46.8,29.90,SSW,199,1.0,13.0,100,0.00,,,0.00,0,Wunderground v.1.15,2013-09-29 04:11:00,
2013-09-28 23:12:00,46.7,46.7,29.90,SSW,199,1.0,13.0,100,0.00,,,0.00,0,Wunderground v.1.15,2013-09-29 04:12:00,
2013-09-28 23:13:00,46.7,46.7,29.90,SSW,199,0.0,13.0,100,0.00,,,0.00,0,Wunderground v.1.15,2013-09-29 04:13:00,
2013-09-28 23:14:00,46.7,46.7,29.90,SSW,199,1.0,13.0,100,0.00,,,0.00,0,Wunderground v.1.15,2013-09-29 04:14:00,
2013-09-28 23:17:00,46.7,46.7,29.90,SSW,199,0.0,13.0,100,0.00,,,0.00,0,Wunderground v.1.15,2013-09-29 04:17:00,
2013-09-28 23:19:00,46.6,46.6,29.90,SSW,199,0.0,13.0,100,0.00,,,0.00,0,Wunderground v.1.15,2013-09-29 04:19:00,
2013-09-28 23:21:00,46.6,46.6,29.90,SSW,199,1.0,13.0,100,0.00,,,0.00,0,Wunderground v.1.15,2013-09-29 04:21:00,
2013-09-28 23:23:00,46.6,46.6,29.90,SSW,194,3.0,13.0,100,0.00,,,0.00,0,Wunderground v.1.15,2013-09-29 04:23:00,
2013-09-28 23:24:00,46.7,46.7,29.90,SSW,194,1.0,13.0,100,0.00,,,0.00,0,Wunderground v.1.15,2013-09-29 04:24:00,
2013-09-28 23:25:00,46.6,46.6,29.90,SSW,194,1.0,13.0,100,0.00,,,0.00,0,Wunderground v.1.15,2013-09-29 04:25:00,
2013-09-28 23:29:00,46.6,46.6,29.90,SSW,194,0.0,13.0,100,0.00,,,0.00,0,Wunderground v.1.15,2013-09-29 04:29:00,
2013-09-28 23:30:00,46.6,46.6,29.90,SSW,194,1.0,13.0,100,0.00,,,0.00,0,Wunderground v.1.15,2013-09-29 04:30:00,
2013-09-28 23:31:00,46.6,46.6,29.90,SSW,194,1.0,13.0,100,0.00,,,0.00,0,Wunderground v.1.15,2013-09-29 04:31:00,
2013-09-28 23:35:00,46.5,46.5,29.90,SSW,202,0.0,13.0,100,0.00,,,0.00,0,Wunderground v.1.15,2013-09-29 04:35:00,
2013-09-28 23:36:00,46.5,46.5,29.90,SSW,202,1.0,13.0,100,0.00,,,0.00,0,Wunderground v.1.15,2013-09-29 04:36:00,
2013-09-28 23:37:00,46.5,46.5,29.90,SSW,202,0.0,13.0,100,0.00,,,0.00,0,Wunderground v.1.15,2013-09-29 04:37:00,
2013-09-28 23:40:00,46.4,46.4,29.90,SSW,200,0.0,13.0,100,0.00,,,0.00,0,Wunderground v.1.15,2013-09-29 04:40:00,
2013-09-28 23:41:00,46.4,46.4,29.90,SSW,200,1.0,13.0,100,0.00,,,0.00,0,Wunderground v.1.15,2013-09-29 04:41:00,
2013-09-28 23:42:00,46.4,46.4,29.91,SSW,200,2.0,13.0,100,0.00,,,0.00,0,Wunderground v.1.15,2013-09-29 04:42:00,
2013-09-28 23:43:00,46.4,46.4,29.90,SSW,200,2.0,13.0,100,0.00,,,0.00,0,Wunderground v.1.15,2013-09-29 04:43:00,
2013-09-28 23:45:00,46.3,46.3,29.91,SSW,200,2.0,13.0,100,0.00,,,0.00,0,Wunderground v.1.15,2013-09-29 04:45:00,
2013-09-28 23:47:00,46.3,46.3,29.90,SSW,200,1.0,13.0,100,0.00,,,0.00,0,Wunderground v.1.15,2013-09-29 04:47:00,
2013-09-28 23:48:00,46.2,46.2,29.90,SSW,200,1.0,13.0,100,0.00,,,0.00,0,Wunderground v.1.15,2013-09-29 04:48:00,
2013-09-28 23:51:00,46.2,46.2,29.90,SSW,200,0.0,13.0,100,0.00,,,0.00,0,Wunderground v.1.15,2013-09-29 04:51:00,
2013-09-28 23:52:00,46.1,46.1,29.90,SSW,200,0.0,13.0,100,0.00,,,0.00,0,Wunderground v.1.15,2013-09-29 04:52:00,
2013-09-28 23:57:00,46.1,46.1,29.91,SSW,200,0.0,13.0,100,0.00,,,0.00,0,Wunderground v.1.15,2013-09-29 04:57:00,
2013-09-28 23:58:00,46.1,46.1,29.90,SSW,200,1.0,13.0,100,0.00,,,0.00,0,Wunderground v.1.15,2013-09-29 04:58:00,
2013-09-28 23:59:00,46.1,46.1,29.90,SSW,200,1.0,13.0,100,0.00,,,0.00,0,Wunderground v.1.15,2013-09-29 04:59:00,